GEFSSE_500_meanwind_000.txt.gz
Wind_Speed
11 12 14 14 14 12 10 10 12 14 13 13 13 13 12 11 10 8 6 6 5 6 6 7 10 15 19 18 17 16 16 15 13 9 10 11 15 17 21 21 19 19 17
9 10 13 14 14 13 9 8 10 14 15 16 17 15 14 12 10 8 7 6 5 6 7 7 9 15 20 20 17 16 14 14 13 7 4 5 6 9 13 18 17 18 17
6 8 11 14 14 13 9 6 8 12 15 18 20 18 14 12 10 8 6 6 6 7 7 7 3 13 20 20 18 16 14 13 11 7 6 5 6 7 8 12 14 15 14
4 6 9 12 13 12 9 6 8 10 13 17 20 19 15 12 10 8 8 7 7 7 5 4 2 3 14 21 20 19 16 13 10 10 10 9 7 7 9 11 12 13 12
4 4 7 11 12 11 10 7 7 10 12 16 19 20 17 13 11 10 10 9 9 7 5 4 2 4 9 19 23 21 17 14 12 10 10 10 8 8 11 8 6 8 6
7 4 5 9 10 10 9 8 6 8 11 15 18 20 19 15 12 9 8 10 10 9 6 4 2 3 4 10 19 24 20 16 14 11 9 9 9 8 10 9 6 6 5
8 6 3 5 7 9 9 8 6 6 8 13 17 19 20 16 12 9 7 8 10 10 7 5 5 5 2 3 9 15 16 14 14 14 12 13 13 12 11 7 4 4 5
10 8 5 3 5 7 8 7 6 5 7 10 14 17 18 15 11 9 8 9 10 11 8 6 5 5 3 3 7 9 11 14 15 14 13 10 10 11 11 8 5 2 5
11 10 7 4 3 5 7 6 5 4 4 7 10 15 17 16 13 11 10 11 11 11 10 8 6 5 3 3 6 10 12 10 8 8 4 3 4 6 2 7 6 6 5
12 12 9 6 5 4 5 6 5 4 4 4 7 12 16 16 14 13 11 11 11 12 12 10 9 8 7 8 11 13 12 9 5 6 6 5 4 4 3 4 6 7 5
11 13 12 9 6 5 5 7 8 6 5 5 6 8 12 15 13 11 11 12 11 11 11 11 10 10 11 11 11 13 14 13 10 9 9 9 8 7 6 6 8 8 8
12 13 13 11 9 8 8 9 10 8 6 7 7 8 9 12 13 11 9 12 13 12 11 10 11 11 13 15 14 14 14 13 12 11 12 12 12 10 8 8 9 9 9
14 13 13 12 11 10 10 11 12 12 9 9 8 8 8 11 14 13 11 11 14 15 13 9 10 12 14 18 19 18 16 15 15 15 16 15 15 13 12 11 11 11 10
13 13 13 13 13 12 12 12 13 14 12 11 10 10 9 11 14 15 14 11 13 16 14 10 10 13 14 15 17 18 18 20 21 20 20 20 19 18 17 15 14 13 12
12 14 14 14 14 14 14 14 15 16 15 14 13 12 11 11 13 14 13 12 12 15 15 12 11 14 14 13 15 17 19 20 21 21 22 22 22 21 21 19 17 16 14
16 17 18 17 17 17 16 16 17 18 16 16 15 14 12 11 12 15 16 15 14 14 15 14 12 15 16 15 15 19 20 19 19 20 20 19 18 19 20 20 18 17 16
17 18 18 19 19 18 17 16 17 19 18 17 16 15 12 11 12 15 15 17 19 17 14 13 12 13 19 19 17 20 20 18 18 18 19 19 18 18 19 20 19 17 16
14 16 17 17 16 15 14 15 17 19 18 17 16 15 14 13 13 14 14 20 23 19 14 14 15 13 16 21 19 17 18 19 17 19 19 19 19 19 19 21 20 17 16
14 14 17 19 17 16 15 16 17 19 19 17 15 16 16 17 16 14 14 21 24 23 18 14 13 16 16 20 21 17 16 18 17 17 18 18 17 17 18 20 21 18 17
18 17 18 20 20 19 18 17 18 18 17 16 14 15 15 15 15 15 20 22 24 24 23 21 17 16 19 20 22 20 17 17 18 18 18 18 17 17 17 19 20 19 19
19 19 18 20 18 18 18 18 19 17 16 15 15 13 14 16 19 22 26 25 24 25 26 24 20 16 19 22 23 23 19 18 18 19 18 18 17 17 17 19 20 19 20
20 20 18 20 20 21 21 23 20 17 13 12 13 14 15 18 21 25 27 25 24 25 26 25 24 20 20 23 24 24 23 19 19 19 19 20 20 18 17 18 21 21 21
22 24 20 22 23 23 22 22 22 16 11 12 15 17 20 23 25 26 27 26 25 24 25 27 26 23 22 24 23 25 25 19 19 20 19 19 21 20 19 19 21 23 25
24 26 23 21 21 22 23 22 18 13 12 14 18 21 22 24 25 26 25 24 23 22 24 26 27 23 23 26 26 25 23 21 18 20 19 18 20 21 21 22 22 23 26
28 27 24 20 20 22 23 22 20 17 16 17 20 24 27 27 26 23 22 23 22 22 24 25 26 23 22 28 30 29 26 21 18 19 19 17 17 18 19 20 21 22 26
29 28 20 23 27 25 22 19 16 15 19 21 22 24 26 27 24 23 23 24 24 24 24 24 22 24 24 29 30 28 25 24 22 19 18 16 14 15 15 16 19 21 22

GEFSSE_500_meanwind_006.txt.gz
Wind_Speed
14 16 16 15 12 11 12 15 17 19 19 17 14 11 11 11 9 8 8 7 6 4 3 2 4 8 12 12 12 11 10 9 10 12 13 13 14 15 16 16 14 13 12
12 14 15 14 12 11 11 13 15 16 18 19 16 12 11 11 9 8 8 8 7 6 5 3 2 6 13 15 14 13 11 11 10 11 12 12 13 14 16 17 16 15 14
9 11 13 14 13 11 10 12 13 15 18 19 18 14 12 11 10 9 9 9 9 7 6 6 4 3 8 13 15 14 12 10 10 10 10 8 8 9 12 14 17 18 17
5 7 10 12 12 12 10 10 11 14 17 18 18 15 13 12 11 10 11 12 12 9 7 7 5 3 4 10 13 12 11 9 8 7 6 5 4 5 7 9 12 16 17
1 3 7 9 10 11 10 9 9 11 14 16 17 15 14 14 14 13 12 13 13 12 8 6 6 3 1 7 12 13 12 10 8 5 3 3 3 5 5 5 6 11 14
3 2 3 6 8 9 9 8 7 8 11 14 16 16 15 14 15 14 12 12 12 11 10 6 5 5 2 5 11 14 13 11 9 6 4 5 5 5 6 5 4 5 9
5 4 1 3 5 7 7 6 6 6 8 11 14 17 17 16 16 16 15 13 12 10 9 7 6 5 4 3 9 13 15 14 11 8 8 7 7 7 7 7 6 5 6
5 5 3 0 3 5 6 6 5 4 4 7 10 14 16 17 17 17 17 16 14 11 9 7 6 5 5 1 5 10 13 13 11 10 8 9 9 9 9 9 8 6 6
6 7 6 3 1 2 4 5 5 4 3 4 6 9 11 13 15 15 16 17 16 13 10 8 5 3 2 1 3 6 8 10 9 8 7 6 6 5 6 10 11 8 6
6 8 8 6 4 3 2 3 5 5 6 6 7 7 7 9 10 12 14 16 16 14 10 7 6 3 2 3 4 5 7 7 5 4 5 5 4 3 1 3 7 6 5
7 8 10 10 8 7 5 5 4 5 7 9 9 8 7 6 8 8 10 12 13 13 11 8 6 6 6 6 7 7 7 7 6 6 6 6 5 4 2 2 2 3 4
7 8 10 11 11 11 9 8 7 8 8 9 10 10 8 6 6 7 8 9 11 12 12 10 8 7 8 9 9 9 9 10 10 9 9 9 8 7 6 5 4 4 5
8 8 10 11 13 13 11 9 9 10 11 11 11 11 10 9 7 8 8 9 9 11 12 12 11 9 8 9 11 12 13 13 12 12 12 12 12 11 10 9 8 7 6
9 9 9 11 12 13 13 12 11 12 13 14 14 14 13 12 9 9 10 10 10 11 11 12 12 11 9 8 11 14 16 16 16 16 16 16 16 16 15 14 13 11 10
15 12 10 10 12 13 14 15 14 15 15 16 16 16 16 15 13 11 12 14 13 14 12 11 11 9 11 11 10 13 17 20 22 22 21 21 21 21 20 20 19 17 15
20 16 14 13 14 16 17 17 17 18 17 17 17 18 17 16 15 14 15 18 18 16 15 15 15 12 10 11 11 13 17 21 24 25 25 25 25 25 24 24 23 22 20
22 20 18 17 18 20 21 20 19 18 17 15 16 17 17 17 17 17 17 19 19 17 16 20 22 20 15 11 11 14 17 20 22 25 25 25 25 24 24 23 22 21 20
23 23 21 19 20 21 20 18 15 14 14 14 14 16 17 18 19 19 19 20 19 19 20 23 24 23 19 15 13 15 19 21 23 25 25 24 23 22 22 22 20 19 19
23 24 24 22 20 20 20 18 16 15 15 15 14 15 18 19 20 20 20 20 20 21 23 25 25 24 22 19 18 18 21 23 23 24 25 24 24 23 23 24 23 21 20
25 26 27 26 23 21 22 22 20 18 17 16 15 17 20 21 21 20 21 21 21 24 26 27 26 25 25 25 23 22 23 24 24 23 24 24 24 24 24 25 25 24 23
27 27 28 29 28 24 23 23 21 19 18 18 17 19 20 22 21 20 21 22 23 26 29 28 26 26 27 28 28 26 25 25 25 24 24 24 25 24 23 25 25 23 24
29 29 30 32 33 29 26 24 21 19 19 19 20 21 23 24 22 21 22 24 26 27 27 27 26 26 28 29 30 29 27 26 24 24 25 25 25 25 23 23 24 23 24
29 30 31 34 36 35 31 27 24 23 22 21 21 22 24 25 24 24 25 26 26 26 26 26 26 26 26 28 29 29 28 28 25 26 28 26 26 25 24 23 24 23 23
31 32 33 36 38 38 33 28 26 24 23 22 23 24 25 26 26 25 26 26 25 24 24 24 25 25 26 27 27 27 27 27 28 25 26 26 26 26 24 25 24 23 23
37 37 38 39 40 41 36 30 26 24 23 23 24 26 27 27 26 26 26 25 23 22 23 24 25 26 27 27 26 27 27 26 27 22 21 23 25 26 25 25 26 25 24
40 42 42 43 43 44 40 33 28 24 23 25 27 27 27 27 26 26 25 22 21 22 23 24 26 26 26 26 26 27 28 28 27 23 22 23 25 25 25 25 26 27 25

GEFSSE_500_meanwind_012.txt.gz
Wind_Speed
13 12 11 11 11 12 13 15 17 18 17 15 14 13 11 10 9 9 8 6 4 3 1 2 4 6 8 8 10 14 16 15 14 14 13 13 14 14 15 15 14 13 13
11 12 11 10 10 11 12 14 17 18 18 16 15 14 12 11 9 9 8 7 5 4 3 1 1 4 8 10 11 11 12 13 12 11 12 12 12 13 14 14 15 15 15
9 11 10 10 10 11 12 14 16 16 17 17 16 15 13 12 11 9 9 8 6 5 4 3 2 1 6 11 13 13 12 11 10 9 10 11 12 13 14 15 16 17 16
6 9 10 10 10 10 11 12 14 15 15 15 15 15 14 12 11 9 8 7 6 5 4 3 3 2 3 8 12 14 13 11 8 7 7 8 11 12 12 13 15 17 17
3 5 7 9 9 9 9 10 11 13 14 14 14 14 14 13 12 10 8 7 6 5 3 3 3 3 1 5 9 12 11 10 7 6 5 6 8 9 9 9 11 14 17
3 2 4 6 8 8 7 8 8 10 12 14 14 14 14 14 13 12 10 9 7 6 4 3 3 3 1 3 7 10 10 10 8 5 4 4 5 5 5 6 7 10 14
6 3 2 3 6 6 6 5 6 6 7 10 11 11 12 13 14 14 13 12 10 9 7 5 4 3 2 1 5 8 9 10 8 6 5 5 5 5 5 5 5 6 9
7 5 3 2 3 4 5 4 3 4 3 4 6 7 8 10 12 14 15 14 13 12 11 9 6 5 4 2 2 6 8 9 9 7 6 6 7 7 7 8 7 7 8
7 7 6 4 3 2 3 3 3 2 1 1 2 3 3 5 8 11 13 14 14 13 13 12 9 7 5 4 2 2 6 8 9 8 8 7 8 8 9 9 10 9 9
5 6 7 8 6 5 3 3 2 2 1 1 2 2 2 2 3 5 8 12 13 13 12 11 10 8 6 4 2 1 4 7 8 8 8 7 8 7 7 8 10 11 10
2 4 6 9 9 8 7 6 5 3 3 2 3 3 2 2 2 2 4 7 9 10 9 10 10 8 6 3 1 2 4 6 7 7 7 7 7 7 6 5 7 11 10
0 2 5 7 10 11 11 11 9 7 6 5 4 4 4 3 3 3 2 3 5 6 6 6 7 8 6 3 1 3 5 7 8 8 8 8 8 8 7 6 5 7 8
2 3 5 7 10 13 14 14 12 10 9 7 7 8 7 7 5 4 3 3 3 3 2 2 2 3 4 3 1 5 8 10 11 12 11 11 11 10 10 9 8 8 9
6 6 7 8 10 13 14 15 14 13 11 10 10 11 11 10 8 7 7 5 5 5 5 5 4 3 3 2 2 6 10 13 14 15 15 15 15 15 14 13 13 13 12
11 10 10 11 12 13 14 15 15 15 15 15 14 14 14 12 11 10 10 9 8 8 8 9 8 6 5 6 6 7 10 14 17 19 19 20 20 19 19 18 18 18 17
16 15 15 15 15 15 15 16 16 17 17 18 18 17 17 15 13 12 12 11 11 12 13 13 13 11 9 8 9 10 11 15 18 21 23 24 24 23 23 23 23 22 21
21 19 19 18 18 18 17 18 19 19 20 20 20 20 19 18 15 14 14 13 14 15 17 17 17 16 14 13 13 12 13 15 18 21 24 26 27 27 28 28 27 27 26
26 24 22 21 21 21 19 19 20 20 20 20 20 20 20 19 18 17 17 17 18 19 20 19 19 18 18 18 17 16 16 17 19 22 24 27 29 30 30 30 30 29 29
30 28 27 25 24 23 22 21 21 21 21 21 21 21 21 21 20 19 19 20 21 21 21 20 19 19 20 21 21 20 19 20 22 24 26 27 30 31 31 30 30 29 28
33 32 31 29 28 27 26 25 24 23 24 24 24 25 25 25 24 22 21 22 22 22 22 21 20 21 22 23 23 23 22 23 25 25 26 27 28 29 30 30 29 28 27
35 35 35 34 33 32 31 31 29 27 26 27 28 29 29 29 26 24 22 22 23 23 22 22 22 23 24 24 24 24 25 26 26 26 25 26 26 27 28 28 28 28 27
39 38 38 37 36 35 35 36 35 32 30 30 32 34 35 32 29 25 24 23 22 22 22 22 23 24 23 23 24 26 26 27 27 26 25 25 26 26 27 27 27 27 27
40 40 40 39 38 37 39 40 39 36 33 32 32 35 36 34 31 27 25 23 22 22 23 24 24 24 23 23 24 25 26 27 27 25 25 25 25 25 26 26 26 27 27
39 40 40 40 39 39 41 42 41 39 37 35 33 34 36 35 32 29 26 24 23 23 24 25 24 24 24 25 25 25 26 27 27 27 25 24 24 25 26 27 28 27 27
38 41 41 42 42 42 43 45 44 42 44 42 38 36 37 36 33 30 26 24 24 24 25 25 25 24 25 26 26 26 25 26 26 26 25 24 23 23 24 25 28 28 26
38 41 42 43 44 45 46 45 45 45 47 47 44 40 38 37 33 30 26 24 24 24 25 25 25 25 26 26 27 26 25 25 25 24 23 23 23 22 21 21 23 24 25

GEFSSE_500_meanwind_018.txt.gz
Wind_Speed
8 7 8 10 11 13 14 15 16 16 16 15 14 12 11 10 10 9 7 6 5 4 3 2 1 2 3 4 6 7 10 12 13 13 14 14 14 14 14 13 12 11 11
7 7 8 9 11 12 13 15 16 17 17 17 16 15 14 13 11 10 9 7 6 5 5 4 2 0 2 4 5 6 7 9 11 12 13 14 14 14 14 14 14 13 12
6 6 7 8 10 11 12 13 14 15 16 17 17 17 16 15 14 13 11 9 8 6 6 5 4 2 1 4 5 5 5 6 8 10 11 12 13 14 14 14 14 15 14
5 6 6 7 8 10 11 12 13 14 15 16 16 17 17 16 16 15 14 12 10 8 6 6 5 4 0 3 5 6 5 5 6 7 9 8 9 10 11 12 13 14 15
3 5 5 6 7 8 9 11 12 12 13 14 15 16 17 17 18 17 16 14 12 10 8 6 6 5 2 1 4 7 6 6 5 5 6 5 6 7 9 10 12 13 14
2 3 4 5 5 6 7 8 10 10 10 10 12 13 15 16 18 18 17 16 15 12 10 9 7 6 4 1 2 5 6 6 5 4 4 3 3 4 6 7 8 10 12
4 3 4 4 4 5 5 6 6 7 7 7 8 9 11 13 15 17 17 16 16 15 13 11 9 7 5 3 0 3 5 5 5 5 4 3 3 2 3 4 4 7 8
7 6 4 4 4 4 4 4 4 4 3 3 3 4 6 8 10 13 14 15 15 15 14 13 11 9 7 5 2 1 3 5 5 5 4 5 5 4 5 5 5 5 5
8 8 6 5 4 4 4 3 4 3 3 1 1 0 1 2 5 7 10 11 11 12 12 12 11 10 8 6 4 2 1 3 5 5 5 6 6 5 6 6 7 7 7
8 9 8 8 7 6 5 5 5 4 4 3 2 2 2 2 2 2 4 6 7 8 9 10 10 10 9 7 5 3 1 2 3 5 7 6 6 6 6 6 6 7 8
7 8 9 9 10 10 9 8 7 7 6 5 4 4 3 4 4 3 3 2 3 4 5 6 7 8 8 7 6 4 2 2 3 6 8 7 7 7 7 6 6 6 7
6 7 8 9 11 11 12 12 11 10 10 9 8 7 6 5 6 6 6 5 4 4 4 4 4 6 6 7 6 5 4 4 4 6 8 7 8 8 7 7 6 6 6
8 8 9 9 10 11 12 13 13 14 14 14 13 12 10 9 9 9 9 9 8 7 6 6 6 6 7 7 7 7 7 7 6 7 10 9 9 10 10 9 9 8 7
10 11 11 11 12 13 13 14 15 16 17 17 17 15 14 13 12 12 12 12 11 11 9 9 10 9 8 9 9 9 9 9 9 10 12 13 13 13 14 14 13 12 11
14 14 14 14 14 15 16 16 16 17 18 19 19 19 18 17 15 15 15 16 15 15 14 13 12 12 11 11 11 10 11 11 12 12 14 15 17 17 18 18 18 18 17
18 18 17 17 17 17 18 19 18 18 19 20 21 21 21 20 19 19 18 18 18 18 17 16 15 15 14 14 13 13 13 13 14 15 16 17 18 19 20 21 22 22 22
23 22 21 20 21 20 19 19 20 20 20 21 22 22 23 24 24 23 21 20 20 19 18 18 18 18 17 16 15 15 15 15 16 16 17 18 19 20 21 22 23 25 26
27 27 26 25 24 24 22 21 21 21 21 22 23 23 24 25 25 25 23 22 21 21 21 21 20 20 18 17 16 16 17 17 18 19 19 20 21 22 23 23 24 25 26
31 31 31 29 27 27 26 24 24 23 22 23 24 24 24 24 24 24 24 25 24 24 24 24 23 21 20 19 18 18 19 20 21 21 22 22 23 23 25 26 26 25 26
36 35 35 34 32 31 30 29 28 28 26 25 25 25 25 25 25 24 25 27 27 27 27 26 24 22 21 20 19 19 21 22 22 22 23 24 24 24 25 26 27 26 25
40 39 38 37 36 35 34 34 33 32 31 29 27 27 27 27 28 27 28 30 30 30 29 27 25 24 22 20 20 20 21 22 23 22 23 25 25 24 25 25 26 26 25
40 40 39 39 38 37 36 35 36 36 34 32 30 29 28 29 30 30 31 31 31 30 30 28 26 24 23 21 20 21 21 22 23 22 22 24 24 23 25 24 25 25 24
37 37 37 37 36 36 36 35 37 37 36 34 32 32 31 31 31 31 31 31 31 30 29 29 27 26 23 22 21 21 23 24 24 23 23 24 24 23 24 25 25 24 23
32 32 32 32 32 33 34 35 36 38 38 37 36 37 36 34 33 32 32 32 31 30 30 30 29 27 25 23 22 23 24 24 25 24 25 24 24 24 24 24 25 24 22
29 29 29 29 30 31 32 34 36 38 39 40 40 41 41 39 37 36 37 36 34 32 31 31 30 29 27 25 24 24 24 25 25 24 25 25 24 24 23 23 24 24 22
31 30 30 30 31 31 33 35 36 37 40 41 42 43 44 42 39 40 40 38 36 34 34 33 32 30 28 25 24 24 25 26 26 25 25 26 25 24 23 23 24 24 23

GEFSSE_500_meanwind_024.txt.gz
Wind_Speed
8 9 10 11 12 13 14 14 15 16 16 17 17 16 15 13 11 9 8 7 6 5 3 3 3 4 6 8 10 13 15 18 19 20 19 17 16 15 14 12 11 11 10
7 8 9 9 11 12 12 13 14 15 16 17 17 17 16 15 13 11 10 8 7 6 5 3 2 3 4 5 7 9 12 14 16 16 16 16 15 15 15 14 13 12 11
7 7 7 8 9 9 10 11 12 13 14 15 16 17 16 16 15 13 12 10 8 7 6 4 3 2 3 4 5 7 9 9 12 13 14 15 15 16 15 14 13 13 12
6 6 6 7 7 7 8 9 10 11 13 14 15 16 16 16 16 15 13 11 9 7 6 5 4 2 1 3 4 6 7 7 9 9 10 11 12 13 13 12 12 11 10
5 5 6 6 6 6 6 7 7 8 10 11 13 14 15 15 15 15 15 13 11 9 7 6 5 4 2 1 3 5 6 5 6 6 5 6 6 7 8 9 9 8 9
4 4 5 5 5 5 5 5 5 5 6 7 9 11 12 13 14 14 14 14 13 11 10 8 7 6 4 3 2 3 4 5 5 4 3 2 2 3 4 4 4 5 6
4 4 4 5 5 5 5 4 3 2 2 3 4 6 7 10 11 11 12 12 12 12 12 11 10 9 7 5 4 2 3 5 5 4 3 2 1 1 1 1 2 2 3
4 4 4 4 5 5 5 5 4 3 2 2 3 3 2 4 6 7 8 9 10 11 12 12 12 11 9 7 6 4 3 3 4 3 3 1 1 1 0 0 1 2 2
4 5 5 5 5 5 5 5 5 5 5 5 5 5 5 4 3 3 4 6 6 7 9 10 11 11 10 9 7 5 3 1 2 2 2 1 1 2 2 2 2 2 1
4 6 6 7 6 6 6 6 6 7 7 7 7 8 8 8 7 6 5 4 4 5 6 7 8 9 9 9 8 5 3 1 0 1 2 2 3 3 4 3 3 3 3
4 6 7 8 8 8 8 8 8 8 9 9 9 9 10 10 10 9 8 7 6 6 6 6 6 7 8 8 8 7 4 3 2 1 2 3 4 4 4 4 4 4 4
4 5 6 7 8 8 8 9 10 10 11 11 11 12 12 13 12 12 11 11 10 9 8 8 7 7 7 8 7 7 5 5 4 3 3 4 5 4 4 4 4 4 4
7 7 7 7 7 7 7 8 10 11 12 13 13 14 15 16 15 15 15 14 13 13 12 12 11 9 9 9 8 8 8 8 7 5 5 6 6 6 5 5 5 5 5
10 9 9 9 9 9 8 8 9 10 11 12 14 15 17 18 18 18 18 17 16 16 16 16 15 14 11 10 10 10 10 10 9 8 8 8 8 9 9 9 8 8 8
15 14 12 12 12 12 11 12 12 11 11 12 13 14 16 19 20 20 20 20 19 19 19 19 19 18 15 13 13 13 13 13 12 12 11 10 10 11 11 12 12 12 13
20 18 17 15 15 15 14 14 15 14 14 14 14 15 16 18 20 22 22 22 23 22 22 21 21 20 19 16 16 16 16 16 15 14 13 12 12 12 13 13 13 14 15
24 23 21 20 19 18 18 17 17 17 17 17 17 17 18 18 20 22 23 23 25 25 24 23 22 21 20 19 18 19 19 19 18 16 15 14 14 15 15 15 16 16 17
29 28 26 25 23 22 22 21 20 20 21 20 20 19 20 21 21 22 23 24 25 25 25 23 23 23 23 22 21 21 21 20 20 18 17 17 16 17 17 17 18 19 19
33 33 32 30 28 27 26 24 24 24 24 25 24 23 23 24 24 24 24 24 25 25 25 24 24 24 25 25 24 23 22 22 21 21 20 19 18 18 18 18 19 20 21
38 38 37 36 34 32 31 29 28 28 28 28 29 29 27 27 27 27 26 26 26 25 25 25 25 25 27 27 26 25 24 23 23 22 22 21 20 20 20 20 20 21 22
42 42 41 40 39 38 37 35 33 32 31 32 33 34 32 30 30 30 29 28 27 27 26 25 25 26 27 28 27 27 26 25 25 24 23 22 21 21 21 21 21 22 22
44 44 44 43 43 42 40 39 37 35 35 35 35 35 35 33 32 32 31 29 28 28 28 26 25 25 25 26 27 28 28 27 27 26 26 24 21 22 22 23 23 22 22
43 44 43 43 43 42 41 40 39 37 36 35 36 35 35 35 34 31 31 29 28 27 26 25 24 23 24 25 26 28 29 29 28 28 27 26 23 22 23 23 22 22 23
44 43 42 42 41 41 40 39 38 37 36 35 35 33 34 33 33 30 29 28 27 26 25 24 24 23 23 25 27 29 30 30 30 29 28 27 25 24 23 22 21 22 23
42 42 41 40 40 39 39 38 36 35 34 33 32 32 32 32 32 31 30 30 28 26 25 24 23 23 24 24 26 29 31 31 31 31 30 28 26 25 24 22 20 21 22
36 38 39 38 38 38 37 36 35 34 33 32 32 31 31 32 32 32 32 31 29 27 26 25 24 23 24 25 26 29 31 32 33 32 30 29 26 25 25 24 22 20 20

GEFSSE_500_meanwind_030.txt.gz
Wind_Speed
11 11 11 12 13 15 17 18 19 20 20 20 19 18 17 15 13 11 9 8 6 5 4 2 1 1 2 6 9 14 17 18 18 18 17 16 15 15 14 13 12 11 10
9 9 9 10 11 13 15 17 18 19 19 20 20 20 19 17 15 13 11 10 9 7 6 5 4 3 2 2 5 9 13 15 17 17 17 17 16 16 16 15 14 13 12
7 7 7 8 9 11 12 14 16 17 18 19 19 19 19 19 17 15 14 12 11 10 8 7 6 5 3 2 1 4 7 10 12 12 13 14 14 14 14 15 14 13 12
5 5 5 5 6 8 10 12 14 15 16 17 17 18 18 18 18 17 16 14 13 12 10 9 8 6 4 2 1 2 3 4 6 7 9 10 11 12 13 14 14 13 12
4 3 3 3 4 5 7 8 10 12 13 14 14 15 16 17 17 17 17 16 15 14 12 10 9 7 5 3 1 0 1 2 2 3 5 6 8 9 10 11 11 11 10
3 2 2 1 2 2 3 5 7 8 9 10 11 12 13 14 14 15 16 16 16 16 15 13 11 10 8 5 3 2 1 1 0 1 2 4 5 6 6 7 8 8 8
2 2 2 2 1 1 0 1 3 4 5 7 7 8 8 9 11 12 13 13 14 15 15 15 14 12 10 8 6 5 3 2 1 1 1 2 3 3 2 2 3 3 4
3 3 3 3 2 3 3 2 2 3 3 4 5 5 6 6 7 8 9 10 11 12 13 13 14 13 12 10 9 7 5 3 2 1 0 1 2 2 2 3 2 2 3
4 5 5 4 4 4 4 4 4 4 4 4 5 5 5 5 5 6 6 7 8 8 9 10 11 12 12 11 10 8 6 4 3 2 1 1 1 2 2 3 3 3 3
5 6 7 7 6 6 6 7 6 6 6 6 6 6 6 6 6 5 5 5 6 6 6 7 8 9 9 9 9 9 7 6 4 2 1 1 1 2 2 2 2 2 2
6 7 8 9 9 9 9 9 9 9 8 8 8 8 8 8 7 7 6 6 6 6 6 6 6 7 7 7 7 7 7 6 4 3 2 1 2 2 2 3 2 2 2
8 8 9 9 10 11 12 12 12 11 11 11 11 11 10 10 10 9 9 8 8 8 8 7 7 7 6 6 6 6 5 5 4 3 2 2 2 2 2 3 3 3 3
11 11 10 10 11 12 13 13 13 13 13 13 13 13 13 12 12 12 12 12 11 11 10 9 9 9 9 8 7 6 5 4 4 4 4 4 3 3 3 3 4 4 5
16 15 14 14 14 14 14 14 14 14 14 14 14 14 14 14 14 14 14 14 14 14 13 13 11 11 11 11 10 9 7 6 6 6 5 5 5 5 5 5 5 5 6
21 20 20 19 19 18 17 17 16 16 15 15 15 16 16 15 15 16 16 16 16 17 16 16 15 14 13 13 13 13 11 9 8 7 7 7 7 7 6 6 6 6 7
25 25 24 23 23 22 22 21 20 19 18 18 17 17 18 17 17 18 18 18 18 19 19 19 18 17 16 16 15 15 14 13 11 10 10 9 9 8 8 7 7 7 7
30 30 29 28 27 26 26 25 25 24 23 22 21 20 20 20 20 20 20 20 21 21 22 21 20 19 19 19 18 17 16 15 14 13 12 11 11 10 10 9 9 8 9
34 35 34 33 32 31 30 29 28 27 27 26 25 24 23 23 23 23 23 23 23 23 24 24 23 22 21 21 20 19 18 18 17 15 15 14 13 13 12 11 11 10 10
40 39 39 38 37 35 34 33 32 30 29 28 27 26 26 26 26 26 27 26 26 27 27 26 26 24 23 22 22 21 20 20 19 18 17 16 16 15 14 13 13 12 12
45 44 44 43 42 40 38 37 36 35 33 32 30 29 28 28 27 28 29 30 30 30 29 29 28 28 26 24 24 23 23 23 22 21 20 19 18 17 16 15 15 14 14
49 48 48 47 46 45 43 41 40 38 37 35 34 33 31 30 30 31 32 32 32 32 32 31 30 30 29 28 26 25 25 25 25 25 23 22 21 20 19 17 17 16 16
50 51 51 50 49 49 47 46 44 43 40 38 37 36 35 35 35 34 33 32 32 33 33 33 31 31 31 30 29 28 27 26 26 26 25 24 23 22 21 19 18 18 18
50 51 51 51 51 50 49 48 46 44 43 42 42 41 40 39 39 38 36 34 34 34 33 31 31 31 31 31 31 29 28 28 27 26 26 26 25 24 23 22 21 20 20
48 48 48 48 50 50 50 48 47 46 44 44 44 43 43 42 41 40 39 37 35 33 31 30 29 30 32 33 33 31 31 29 27 26 26 26 26 26 25 24 23 23 22
42 42 43 44 45 46 47 47 46 45 44 43 43 42 42 42 42 41 40 37 35 32 31 30 29 29 31 34 33 32 30 30 29 28 28 27 27 27 27 26 26 25 24
33 32 34 36 38 40 41 42 43 43 42 42 41 40 40 39 39 39 38 35 34 31 29 28 28 28 29 32 32 32 32 30 29 29 29 29 28 28 28 28 29 28 27

GEFSSE_500_meanwind_036.txt.gz
Wind_Speed
13 14 14 14 15 15 16 17 18 18 19 18 17 16 15 14 13 11 10 9 8 6 5 3 4 5 8 11 13 15 17 17 16 15 14 12 12 11 11 11 11 10 9
11 12 12 12 13 13 14 15 16 17 18 18 18 17 16 15 14 13 12 11 10 8 7 5 4 3 4 6 8 11 14 15 15 15 14 13 13 12 12 12 12 11 10
9 10 11 11 11 11 12 13 14 15 16 17 17 17 17 16 15 14 13 12 11 10 9 7 5 4 3 3 4 6 7 8 10 11 11 11 11 11 11 11 11 10 9
8 8 9 10 9 9 9 10 11 12 13 14 15 16 16 16 15 14 14 13 12 11 10 8 7 5 4 4 3 3 3 4 5 5 6 7 7 7 8 8 9 8 9
7 7 8 8 8 8 8 8 8 9 10 11 12 13 14 14 14 14 14 14 13 12 11 10 9 7 5 5 4 4 4 4 4 3 2 3 4 4 5 5 5 6 6
6 7 7 7 7 7 7 6 6 6 6 7 8 9 10 11 12 12 13 13 13 13 13 12 11 9 8 6 6 5 5 5 4 3 2 1 0 1 2 1 2 2 2
6 6 7 7 7 7 6 6 5 4 3 4 4 5 6 7 8 8 9 11 11 12 13 13 12 11 10 8 7 6 6 5 4 4 4 3 2 1 2 2 2 2 1
7 7 7 8 8 8 8 7 6 5 4 4 3 3 3 3 4 5 6 7 8 9 10 11 11 12 11 10 8 7 5 5 5 4 4 3 3 3 3 3 3 2 2
9 9 9 9 9 10 10 10 9 8 7 6 5 4 3 3 3 3 3 3 4 5 6 7 8 9 10 10 9 7 6 5 4 4 4 4 4 3 3 3 3 3 2
10 11 12 12 12 12 12 12 11 11 10 9 8 7 6 5 4 4 3 3 2 2 2 3 4 6 7 7 7 7 6 5 4 4 4 4 3 3 3 3 2 2 2
10 12 13 14 15 15 15 15 14 13 13 12 12 11 10 8 7 7 6 5 4 4 3 1 0 1 2 3 4 4 4 4 3 3 3 3 2 2 2 2 2 2 2
13 13 14 15 17 18 19 18 18 17 16 16 15 14 13 12 11 10 9 8 8 7 6 5 4 3 2 1 0 1 1 1 1 1 1 2 2 2 1 1 0 0 1
17 17 18 18 19 19 20 21 21 20 20 19 18 17 16 15 14 13 12 11 11 10 9 8 8 7 6 6 5 4 3 2 2 2 1 2 2 3 3 2 2 2 2
21 22 22 23 23 23 23 23 23 23 23 22 22 21 20 18 17 16 15 14 13 12 12 11 10 10 10 9 8 8 7 6 5 5 4 4 4 5 5 5 5 5 5
25 25 26 26 27 27 27 26 26 26 26 25 25 24 23 21 20 19 17 16 15 14 14 14 13 13 12 12 11 11 11 10 9 8 7 7 7 7 8 8 8 8 8
29 30 30 31 31 31 31 31 31 32 30 29 28 27 26 25 24 22 21 19 18 16 16 16 15 15 14 14 14 13 13 13 13 12 11 10 10 10 10 10 10 10 11
35 35 36 36 36 36 35 35 35 35 35 34 33 32 31 29 28 26 24 22 20 19 18 18 17 17 17 16 15 15 15 15 16 15 14 13 13 12 13 13 13 13 13
42 42 42 42 42 41 41 40 39 37 37 36 36 35 34 33 32 31 29 26 24 22 21 21 20 19 19 18 17 17 17 17 17 17 17 16 15 15 15 15 15 15 15
45 47 47 48 48 47 46 45 45 44 42 40 39 38 37 36 34 33 31 28 26 24 23 22 22 22 21 21 20 19 19 18 19 19 19 19 18 18 18 18 18 18 17
45 48 50 52 53 52 51 51 50 49 47 44 42 41 39 38 37 35 34 31 28 26 25 24 24 24 24 24 23 22 21 20 20 20 21 21 21 21 20 20 20 20 20
44 46 49 52 53 55 54 54 54 53 52 50 46 43 41 39 36 35 32 31 29 27 26 25 25 25 24 25 25 25 25 23 22 22 23 24 24 23 23 22 22 22 22
43 46 48 50 52 53 54 55 55 55 54 53 51 48 45 42 39 35 33 31 29 29 29 27 26 25 25 24 24 24 25 25 25 25 25 25 25 24 24 24 24 24 24
40 42 45 48 50 51 52 53 55 55 54 54 53 52 50 46 41 39 35 33 31 31 30 29 28 26 25 25 25 24 24 26 26 26 26 26 26 26 25 26 26 26 26
35 38 40 42 45 47 48 49 50 51 51 52 51 51 50 48 44 40 38 35 34 32 31 31 30 28 27 27 26 25 25 26 28 28 28 28 28 28 27 27 27 27 27
30 31 32 33 35 36 38 40 42 44 46 47 47 47 47 45 43 41 38 37 36 35 34 33 31 30 28 27 27 27 27 28 30 30 30 29 30 29 29 28 28 28 28
22 22 22 23 23 24 27 29 33 36 38 41 42 43 43 42 41 40 38 37 37 36 35 34 33 31 30 29 28 28 28 28 31 31 31 31 31 31 30 30 29 29 28

GEFSSE_500_meanwind_042.txt.gz
Wind_Speed
8 10 11 11 11 11 11 12 12 12 11 11 10 10 9 8 7 6 5 5 5 5 6 7 9 10 11 14 16 16 17 17 16 15 13 11 11 10 10 10 9 9 9
6 7 8 9 10 10 10 10 11 12 11 11 10 10 9 8 7 7 6 5 4 4 4 5 5 6 8 10 12 14 16 17 17 16 15 13 12 11 11 10 11 11 10
5 5 6 7 7 7 8 8 9 10 11 11 10 10 9 9 8 7 7 6 6 5 4 4 3 3 4 6 8 11 12 13 15 15 14 14 11 11 10 10 9 8 8
4 5 5 5 5 5 5 6 6 7 8 9 9 9 9 9 8 7 7 7 7 6 5 4 3 3 3 3 4 6 7 9 10 11 12 10 8 7 7 7 7 6 6
5 5 5 5 4 4 3 3 4 4 5 6 7 7 8 8 8 8 7 7 8 7 6 5 5 5 5 4 4 3 4 5 5 5 6 5 4 4 4 4 4 3 3
6 6 6 7 6 5 4 3 2 1 1 2 3 3 4 5 5 6 7 7 7 8 7 7 6 6 6 5 5 4 5 5 4 3 3 3 1 1 1 1 0 0 0
7 8 8 8 8 8 7 7 6 4 4 3 2 1 1 1 2 3 4 5 6 7 7 7 7 6 6 6 5 5 5 5 4 4 3 2 2 3 3 2 2 2 2
9 9 10 10 10 11 10 10 9 8 7 7 6 5 5 3 2 1 1 2 3 4 5 6 7 7 6 6 6 5 5 5 5 5 4 4 4 5 5 5 4 3 3
10 11 12 12 12 12 13 13 13 12 11 10 10 9 8 7 6 5 4 3 2 1 2 4 5 6 6 6 6 6 5 5 5 5 4 4 4 5 5 4 4 4 4
13 13 13 14 14 15 15 15 15 15 15 14 13 12 11 10 10 9 8 7 6 4 3 2 2 3 4 4 5 5 5 5 5 5 4 4 4 4 4 4 4 4 4
16 17 17 16 16 17 17 18 18 17 17 17 17 16 15 14 13 12 11 11 9 8 7 5 4 3 2 2 3 4 4 4 4 4 3 3 4 4 3 3 3 3 3
20 20 20 20 20 20 20 20 21 20 20 20 20 20 19 18 17 16 15 14 13 12 11 9 8 6 5 4 3 3 3 3 3 3 3 2 2 2 2 2 2 2 2
23 23 23 24 24 24 23 23 23 23 24 24 24 24 23 22 20 19 18 17 16 15 15 13 12 10 9 8 7 5 4 3 3 3 3 3 2 2 1 1 0 1 1
26 27 27 27 28 28 28 28 27 27 27 28 28 28 27 25 24 22 21 20 19 18 18 17 16 14 13 12 11 9 8 7 6 6 6 5 4 4 3 3 3 3 2
30 30 30 31 31 31 31 31 32 32 32 31 29 30 31 29 26 25 24 22 22 21 21 20 19 18 16 15 14 13 11 10 9 9 9 8 7 6 6 6 6 5 5
35 36 36 36 36 36 36 35 35 35 35 34 34 33 33 31 30 28 28 26 25 24 23 23 21 20 19 17 16 15 14 13 12 12 12 11 10 9 9 8 9 8 8
39 39 40 41 41 41 41 41 41 40 39 38 37 37 36 35 33 32 32 30 29 28 27 26 24 23 21 20 18 17 16 16 16 15 15 15 13 12 12 11 11 11 11
39 40 41 42 43 45 46 46 46 46 45 44 43 42 41 39 37 36 34 33 32 31 30 29 27 26 24 22 21 19 18 17 18 17 17 18 16 15 14 14 14 14 13
38 38 39 40 42 43 45 47 49 49 49 49 48 46 45 44 41 39 38 36 36 35 33 31 29 28 27 25 23 22 20 19 19 19 19 19 19 19 17 16 16 15 16
36 37 38 39 40 41 43 45 46 47 48 50 50 49 48 46 44 42 40 39 37 37 36 35 33 31 28 27 25 23 22 21 21 20 20 20 20 20 20 19 18 18 17
35 36 38 39 40 41 43 44 46 47 47 48 49 50 50 50 48 46 44 41 39 38 37 36 34 33 30 28 25 24 23 23 23 23 22 22 22 22 22 22 21 20 20
34 35 36 37 38 40 42 43 45 46 48 49 49 50 51 51 50 48 47 46 41 38 37 36 33 32 32 29 26 23 22 22 22 23 23 24 23 23 23 23 23 23 22
30 31 32 33 35 37 39 40 42 44 46 47 49 50 51 51 50 49 47 47 44 41 37 36 34 32 31 29 28 25 22 22 21 20 21 22 23 24 24 24 24 23 23
27 27 27 28 30 32 33 35 37 39 41 43 46 47 47 48 49 49 46 46 45 42 39 37 36 35 32 29 27 26 25 24 23 21 21 21 22 23 24 24 24 24 23
23 24 25 26 27 28 29 30 31 33 35 37 40 42 43 44 45 46 46 44 43 42 41 39 37 34 33 30 28 27 25 25 23 23 22 23 23 23 23 24 25 25 24
19 19 20 21 23 24 24 23 25 26 28 31 33 35 37 39 40 42 42 41 41 41 40 40 37 35 33 32 30 29 27 27 26 24 24 24 24 23 22 23 24 25 25

GEFSSE_500_meanwind_048.txt.gz
Wind_Speed
5 6 7 8 9 9 10 10 9 9 9 8 8 7 6 4 3 2 3 5 7 9 11 13 15 16 17 19 19 19 18 17 17 16 15 13 12 11 11 10 10 9 9
2 3 4 5 6 7 8 8 8 8 8 7 7 7 6 5 4 2 1 2 4 6 8 10 12 13 15 16 17 18 18 18 18 18 17 16 14 13 13 11 10 9 8
1 1 1 2 3 4 5 5 6 6 6 6 6 6 5 5 4 3 2 1 2 4 5 7 8 10 12 13 14 15 16 17 17 17 17 16 15 13 13 11 9 8 7
3 3 3 2 1 1 2 2 3 4 4 4 4 5 5 4 4 3 3 2 0 1 3 4 5 6 8 9 9 10 12 14 14 14 13 13 13 12 10 9 7 6 5
4 4 5 5 4 3 3 2 2 1 1 2 2 2 3 3 3 3 3 2 1 1 1 2 3 4 5 5 5 6 7 9 10 9 9 8 8 7 7 6 5 4 4
5 6 6 7 7 7 7 6 5 4 3 2 2 1 0 1 1 2 2 2 2 2 2 1 1 2 3 3 3 4 5 5 6 6 5 5 4 4 4 4 3 2 2
6 7 8 9 9 10 10 10 9 8 7 6 6 5 4 3 2 1 0 0 1 2 2 2 1 1 1 1 2 3 4 4 4 4 4 3 3 2 2 2 2 2 2
8 8 9 10 11 12 13 13 13 13 12 11 10 9 8 7 6 5 4 3 2 1 1 1 1 1 0 1 2 3 4 4 3 4 4 3 3 3 3 2 2 2 2
10 10 11 12 13 14 15 16 16 16 15 15 14 13 12 11 10 9 8 7 5 4 3 2 1 0 0 1 1 2 3 4 4 4 4 4 4 4 3 3 3 4 4
13 14 15 15 16 17 18 19 19 19 19 18 17 16 15 14 14 13 12 11 9 8 7 5 4 2 1 1 1 2 3 4 4 4 4 4 4 4 4 3 4 4 5
16 17 18 19 19 19 20 20 21 22 22 22 20 20 19 18 17 16 15 14 13 12 11 9 8 6 4 3 3 3 3 4 4 4 4 4 4 4 4 3 3 4 5
21 21 21 22 22 22 22 21 22 23 23 23 23 23 22 22 21 20 19 18 17 15 14 13 12 10 9 7 5 5 5 5 4 4 5 4 4 4 4 3 3 3 4
27 27 27 26 26 26 26 25 24 25 25 24 24 25 26 26 25 24 23 22 21 20 19 17 16 14 13 11 9 8 8 7 6 5 6 6 5 4 4 3 3 3 3
33 33 33 33 32 31 31 30 29 28 28 27 27 28 27 27 28 27 27 27 25 24 23 22 20 19 17 15 13 12 11 11 10 8 8 8 7 6 5 4 4 3 3
36 37 38 38 38 37 36 35 34 33 32 31 29 30 28 29 29 30 29 28 28 28 27 25 24 22 21 19 17 15 15 14 14 12 11 10 9 9 7 6 6 5 4
37 38 39 40 40 40 40 40 39 38 37 35 34 31 31 31 30 30 31 30 29 29 29 28 27 25 24 23 21 19 19 17 17 16 15 14 12 11 10 9 8 7 6
36 37 38 38 39 40 41 42 42 42 41 40 39 38 36 35 33 33 32 32 31 30 29 30 29 28 27 26 24 23 21 20 20 20 19 18 16 14 13 12 11 10 9
35 36 36 37 37 38 38 39 39 40 40 40 40 40 40 40 39 38 35 34 34 34 34 33 31 30 30 28 27 25 24 23 24 24 23 21 19 18 16 15 14 13 12
33 34 35 35 36 36 36 37 38 38 39 39 39 39 40 40 41 40 40 38 36 35 35 35 34 32 31 30 29 28 28 27 28 27 26 24 22 21 20 18 17 15 14
29 30 31 33 34 34 35 36 37 38 38 38 38 38 39 39 40 41 41 40 39 37 36 36 34 33 32 32 31 30 29 30 30 29 28 26 25 23 22 21 20 19 17
27 27 28 29 30 31 33 33 34 36 37 37 38 38 38 38 38 39 40 40 40 39 37 37 35 33 32 32 32 31 30 31 31 31 30 28 27 26 24 23 23 21 20
25 25 25 24 25 26 27 29 31 33 35 37 38 38 38 38 38 38 40 40 40 40 40 38 37 35 33 31 31 32 32 31 32 32 31 30 30 28 27 25 24 24 23
22 21 21 21 22 23 25 26 28 30 32 34 36 37 38 38 38 37 38 40 40 41 40 39 39 37 35 34 32 32 32 32 33 32 32 31 30 30 29 28 27 26 25
18 18 18 18 19 20 22 23 25 27 28 30 32 34 36 36 37 37 38 39 40 41 41 40 40 40 38 36 34 33 33 33 34 34 33 32 31 30 29 29 29 28 27
17 17 16 16 16 17 18 19 20 21 22 24 27 29 32 33 35 35 37 38 39 41 41 41 41 41 39 38 37 36 35 34 35 36 35 34 32 31 29 29 29 29 28
18 18 17 17 17 16 16 15 15 16 17 19 21 23 25 28 30 32 34 36 38 39 41 42 42 41 40 40 39 38 36 35 35 37 37 37 35 33 30 29 28 28 27

GEFSSE_500_meanwind_054.txt.gz
Wind_Speed
3 4 4 4 5 7 8 9 9 10 10 9 9 8 7 6 5 3 2 2 4 5 7 9 10 12 13 14 15 16 17 17 17 17 16 15 15 14 13 12 12 11 10
2 3 3 3 3 4 5 6 7 8 8 8 8 7 6 5 5 4 2 1 2 4 6 7 9 10 12 14 15 16 17 18 18 18 17 17 16 15 14 13 12 11 9
3 3 4 3 2 2 2 3 4 5 6 6 6 6 5 5 4 3 2 1 1 2 4 5 7 8 10 12 13 15 16 17 17 18 17 17 16 15 14 12 11 10 8
5 5 5 5 4 3 2 1 1 2 3 3 4 4 4 3 3 2 2 1 1 2 2 3 4 5 7 8 10 12 12 14 15 15 15 15 14 13 12 11 10 8 6
7 7 7 7 7 6 5 4 3 2 1 1 1 1 1 1 1 1 1 1 1 2 2 3 3 4 5 6 7 8 9 9 11 11 11 11 10 10 8 8 6 5 4
10 10 10 9 9 9 8 8 7 6 5 4 3 3 2 1 1 1 1 1 1 1 2 3 3 3 3 4 5 5 6 7 7 7 7 6 6 5 5 4 3 3 3
12 12 11 11 12 11 11 11 10 10 9 8 7 6 6 5 4 3 2 2 1 1 2 2 3 3 2 3 3 4 4 4 4 4 3 3 2 2 2 1 1 1 1
14 14 13 13 13 14 14 14 14 14 14 13 12 11 10 9 8 7 6 5 4 3 3 2 3 2 2 2 2 2 2 2 2 2 1 2 2 1 1 1 1 0 1
16 16 14 15 15 16 17 17 17 17 18 18 17 16 14 13 12 11 10 9 8 7 5 4 3 2 2 2 2 2 1 1 1 1 1 2 2 2 2 2 1 1 2
19 18 18 17 18 18 19 19 20 20 21 22 21 20 19 17 16 15 13 12 11 10 9 8 6 4 3 3 3 2 2 1 1 1 2 3 3 3 3 2 2 2 3
22 22 22 21 21 21 21 21 22 23 23 23 23 23 22 21 20 18 17 16 15 14 13 11 10 8 6 5 4 3 3 2 2 2 2 3 3 2 2 3 3 3 3
28 27 27 27 27 26 25 25 24 24 24 24 24 24 24 24 23 22 20 19 18 17 16 15 14 12 10 9 7 6 5 4 3 3 3 3 2 2 2 2 3 3 3
34 34 34 34 34 33 32 31 30 28 27 26 25 26 26 25 24 24 23 23 22 21 20 19 17 16 14 13 11 10 8 7 5 5 4 4 3 3 3 3 3 3 3
37 38 38 39 38 38 37 37 36 35 33 32 30 27 26 26 26 25 27 26 26 24 23 22 21 20 18 17 15 14 12 10 9 7 7 6 6 5 4 3 3 3 3
37 39 39 40 40 40 40 40 40 40 39 37 36 33 31 29 28 27 27 28 28 27 26 24 24 23 22 21 20 18 17 15 13 11 10 9 8 7 6 5 5 4 4
34 36 37 38 38 39 39 40 41 41 41 41 41 39 37 35 33 32 30 28 30 29 28 27 26 26 25 24 24 23 21 19 17 15 14 12 11 10 9 8 7 6 6
30 31 32 33 34 35 36 37 38 40 40 41 42 42 42 41 39 37 35 33 32 31 30 29 28 26 25 26 27 26 25 24 22 20 18 16 15 13 12 11 10 9 8
28 29 30 30 31 31 32 33 35 36 37 38 40 41 42 43 43 42 40 39 37 34 33 31 30 29 27 27 28 29 28 27 26 24 22 21 19 17 15 14 13 12 11
26 27 27 28 29 29 30 30 32 33 34 35 37 39 40 42 42 43 43 43 42 40 37 35 33 31 29 29 29 30 31 31 30 28 26 24 22 20 19 17 16 15 14
25 25 25 25 26 27 28 29 29 31 32 34 35 36 38 40 41 42 42 44 43 42 41 39 37 35 33 31 31 31 32 33 33 32 31 28 26 24 22 21 19 18 17
21 20 20 20 21 22 23 25 26 27 29 31 33 35 36 38 39 40 41 42 43 43 42 41 40 39 37 35 33 32 33 34 34 34 33 32 30 27 25 24 23 22 21
19 18 17 17 17 17 19 20 22 23 25 27 29 31 33 35 37 38 40 41 42 42 42 42 42 41 39 38 35 33 32 34 35 35 35 34 33 31 29 27 26 24 24
19 19 18 17 16 16 16 16 17 19 20 22 24 27 29 32 34 37 39 41 42 42 42 42 43 42 40 39 37 35 33 31 34 35 35 36 35 34 32 30 29 27 26
20 20 19 18 17 16 16 15 15 15 17 19 21 23 25 28 30 33 36 39 42 43 43 42 42 43 42 41 39 37 35 33 33 34 35 36 36 35 34 32 31 29 29
20 21 20 19 18 17 16 15 14 13 14 15 17 19 21 23 26 28 32 35 39 41 43 44 43 43 43 43 41 40 39 37 35 34 34 36 37 37 36 34 33 32 31
21 21 20 20 19 18 17 16 14 13 14 14 14 15 17 19 21 24 28 31 35 38 41 42 44 43 43 44 43 42 41 40 39 36 34 34 35 37 37 36 35 34 32

GEFSSE_500_meanwind_060.txt.gz
Wind_Speed
2 2 2 2 3 3 4 4 5 5 6 7 7 8 8 8 7 8 8 9 10 10 11 10 11 11 12 12 13 13 13 13 13 13 14 13 13 12 11 11 10 10 9
5 5 4 4 4 4 5 5 5 6 6 7 7 7 8 8 8 7 7 8 8 9 9 10 10 11 12 12 12 13 13 14 14 14 15 15 14 13 12 11 11 9 8
7 7 7 7 7 7 7 7 7 7 7 7 7 7 7 7 7 7 7 7 7 7 8 8 8 9 10 11 11 11 12 13 14 14 14 14 13 12 11 10 9 8 7
8 9 9 9 9 9 9 9 8 8 8 8 7 7 7 7 6 6 6 6 6 6 6 7 7 7 8 9 9 9 10 10 11 11 11 12 11 10 9 8 7 6 5
10 11 12 12 12 12 12 11 11 11 10 10 9 9 8 8 7 7 7 7 6 6 5 5 5 6 6 6 6 6 7 7 7 7 8 8 8 8 7 7 6 5 4
12 13 13 14 15 15 15 15 14 14 13 13 12 11 11 10 9 8 7 7 7 6 5 5 5 5 5 5 5 4 4 4 4 4 5 5 5 5 5 4 4 4 4
14 14 15 15 17 18 18 18 18 17 16 16 15 15 14 12 11 10 9 8 7 7 6 5 5 4 4 4 4 3 3 3 3 3 3 4 4 4 4 4 4 4 4
17 17 16 16 17 19 19 20 20 20 20 20 19 18 17 16 15 13 12 11 9 8 7 6 5 5 4 3 3 3 3 3 3 3 3 4 5 5 4 4 4 5 5
21 21 21 20 20 20 20 20 20 21 22 23 23 22 20 19 18 17 15 14 12 11 9 8 7 6 5 4 3 3 4 4 4 4 4 5 5 6 5 5 5 5 5
25 26 25 24 23 23 21 21 21 22 23 24 25 25 24 23 21 20 18 17 16 14 13 11 9 8 7 5 5 4 4 5 5 5 5 6 6 6 6 5 5 5 6
31 31 31 30 29 27 27 25 25 25 24 24 24 25 25 25 24 22 21 20 19 18 16 15 13 11 9 8 7 6 6 6 6 6 6 6 6 6 6 6 6 6 7
33 34 35 36 35 34 33 33 32 29 28 27 25 25 25 25 25 25 24 23 22 21 20 18 16 15 13 11 10 8 7 7 7 7 7 7 7 7 6 6 6 6 7
33 35 36 37 38 38 38 39 38 37 35 34 31 28 27 25 26 26 26 25 25 24 22 21 20 18 16 15 13 12 10 9 9 9 9 9 8 8 7 7 7 7 7
32 33 34 35 36 38 39 40 41 41 41 39 37 34 31 29 29 28 26 27 27 26 25 23 22 21 20 19 17 16 14 12 11 11 10 10 9 9 8 8 8 8 7
30 31 31 32 33 33 35 37 39 41 42 42 41 40 38 36 33 32 30 27 28 28 27 27 26 23 22 21 21 20 18 16 15 14 13 12 11 11 10 9 9 8 8
27 28 29 29 30 30 31 32 34 36 39 42 43 43 42 41 40 36 34 32 30 29 29 28 29 27 25 23 23 23 22 20 19 17 16 15 14 13 12 11 10 10 9
24 24 25 26 27 28 28 29 30 31 33 36 39 42 43 43 43 42 39 37 34 33 32 29 29 29 28 27 26 25 25 24 23 21 19 18 17 16 15 14 13 12 11
22 22 22 23 24 25 25 26 27 28 30 32 34 37 40 42 43 44 43 42 39 37 36 34 31 30 30 30 29 28 27 26 26 25 23 22 20 19 17 16 15 14 13
20 21 21 21 21 21 21 23 24 25 27 28 30 33 36 39 41 42 43 43 43 41 39 37 35 34 32 31 29 30 29 28 28 28 27 26 24 22 21 19 18 17 16
20 19 19 18 18 17 18 19 20 21 24 25 27 29 33 36 38 40 42 43 43 43 43 41 40 38 35 33 32 31 31 30 31 31 30 29 28 26 24 23 21 20 19
19 19 18 18 16 16 15 15 15 16 18 20 23 25 28 31 35 37 40 41 42 43 43 43 43 42 40 38 36 35 34 33 33 32 33 32 31 30 29 27 25 24 22
20 19 19 18 17 16 15 14 14 13 14 15 17 20 23 26 30 34 37 40 41 42 42 43 43 43 42 41 40 39 37 36 35 34 34 33 33 33 32 31 29 27 26
20 19 19 18 18 17 16 14 13 13 12 13 14 16 19 22 25 29 33 37 40 42 43 43 44 44 43 42 41 42 41 39 38 36 36 35 35 35 35 34 33 31 29
19 19 19 19 18 18 17 15 14 13 12 12 12 13 15 17 21 24 27 31 35 38 41 43 44 44 44 43 43 42 43 42 41 38 37 36 36 36 37 36 36 35 34
19 19 19 19 19 19 18 17 15 14 13 12 12 13 13 15 17 20 23 27 30 34 37 40 42 44 44 44 44 43 43 43 43 41 39 38 38 38 38 38 37 37 36
20 19 19 19 19 19 19 18 16 15 14 13 13 12 13 14 15 17 19 23 26 30 34 37 40 42 44 45 45 45 44 44 43 44 43 41 39 39 39 40 39 38 38

GEFSSE_500_meanwind_066.txt.gz
Wind_Speed
10 10 10 10 10 9 8 8 7 7 7 7 7 8 9 10 11 12 13 14 14 14 15 15 16 16 16 16 15 15 15 14 14 13 13 12 12 11 10 10 9 8 7
11 11 12 12 12 12 11 10 10 9 9 9 9 9 9 10 10 11 12 13 13 14 14 14 15 15 15 15 15 15 16 15 15 15 14 14 13 12 11 10 9 8 6
12 13 13 13 14 14 14 13 13 12 11 11 10 10 10 10 10 11 11 12 12 13 13 14 14 14 14 14 14 15 15 15 15 15 14 14 14 12 11 10 8 7 5
14 14 14 15 16 16 16 17 16 15 14 13 13 12 12 11 11 11 11 12 12 12 12 13 13 13 13 13 14 14 14 14 14 13 13 13 12 11 10 9 7 5 4
16 17 17 16 16 17 18 19 19 19 18 17 16 15 15 14 13 12 12 12 12 12 12 12 12 12 11 12 12 12 12 11 11 11 11 10 10 9 8 7 6 5 4
19 20 19 19 18 18 19 20 21 22 23 22 20 19 18 17 16 15 14 13 12 12 11 11 11 11 10 10 10 10 10 9 9 8 8 8 8 8 7 6 6 5 4
23 22 22 22 21 21 22 22 22 24 25 25 25 24 22 20 19 18 16 15 14 13 12 12 11 10 10 10 9 9 8 8 7 6 6 6 7 7 6 5 5 5 6
27 27 26 25 25 25 24 24 24 25 26 27 27 27 25 24 23 21 19 18 16 15 14 13 11 11 10 9 8 8 7 7 6 6 6 6 7 7 6 5 5 6 6
30 30 30 29 28 28 28 27 27 26 27 27 29 28 28 27 27 25 23 21 20 18 16 15 13 11 10 9 8 8 7 7 6 6 6 6 7 7 6 6 6 7 7
31 32 32 32 32 32 32 31 30 30 29 29 29 30 30 29 29 29 27 25 23 21 20 18 15 13 11 10 9 8 7 7 7 6 7 7 7 7 7 7 6 7 7
31 32 33 33 33 33 34 34 34 34 32 31 30 30 31 30 29 29 30 28 27 25 23 21 19 16 14 12 11 9 8 8 8 7 8 7 8 8 7 7 7 8 8
31 32 32 33 33 33 33 34 34 35 35 35 34 33 31 29 29 28 28 30 31 29 26 24 22 20 17 15 13 12 10 9 9 9 8 8 8 8 8 7 7 8 9
30 31 31 32 32 32 32 32 32 33 34 36 36 36 35 32 31 31 30 28 29 30 28 26 24 23 21 18 16 14 13 11 10 10 10 10 9 9 9 8 8 9 9
28 29 29 29 29 30 30 30 30 31 32 33 34 36 36 35 33 32 32 32 30 29 30 30 28 25 24 22 20 18 16 14 13 12 11 11 11 10 10 9 9 9 10
25 24 25 25 26 26 27 26 27 28 29 29 30 33 35 35 35 34 34 33 33 31 30 29 29 28 27 25 23 21 19 18 16 14 14 13 13 12 11 11 10 10 10
22 22 23 23 23 23 23 23 24 24 25 27 27 29 30 31 32 33 34 34 33 33 32 31 30 29 29 29 27 25 23 21 19 17 16 15 15 14 13 12 12 12 11
22 22 22 22 22 22 21 21 21 21 22 23 25 26 27 29 29 30 31 33 33 33 34 32 31 31 29 28 27 26 25 24 23 21 19 18 17 16 15 14 14 13 13
22 22 22 22 22 21 20 19 19 18 19 20 21 22 24 26 27 29 29 30 31 32 33 34 33 31 31 29 27 27 27 26 25 24 23 21 20 19 18 16 16 15 14
22 22 22 22 21 20 20 18 17 16 16 16 17 19 21 23 24 26 28 29 30 31 33 34 33 33 33 31 29 28 28 28 28 27 26 25 24 22 20 19 18 17 16
21 21 21 21 21 20 18 17 15 14 13 13 14 15 16 18 21 23 25 26 28 30 31 34 35 34 33 32 32 30 29 29 29 29 28 28 27 25 24 22 21 20 19
21 21 21 21 20 19 18 16 15 14 13 12 12 13 14 15 17 20 22 24 26 28 30 32 34 35 35 34 33 31 30 30 30 30 29 29 29 28 27 26 24 23 22
21 21 21 20 20 19 18 16 15 14 13 12 12 12 12 13 14 17 19 21 23 26 28 30 32 33 34 35 34 33 32 31 31 31 30 29 30 30 29 28 28 27 25
21 21 21 21 20 19 19 17 16 14 13 12 11 12 12 12 13 15 17 19 21 23 25 28 30 32 33 35 35 35 34 34 32 33 31 31 31 31 31 31 30 30 29
21 21 21 21 21 20 20 19 17 15 14 12 11 11 11 11 12 14 15 17 19 21 23 25 28 30 32 34 35 36 36 35 35 34 34 34 33 32 32 32 33 34 33
21 21 22 22 22 21 21 21 19 17 16 15 13 12 11 11 12 13 13 15 17 18 21 23 26 29 31 33 34 36 36 37 37 37 36 36 36 35 35 35 34 35 34
21 21 22 22 22 22 22 22 21 20 19 18 16 14 13 12 12 12 12 14 15 16 18 20 23 26 29 31 34 35 36 37 37 38 38 39 39 39 38 37 37 34 35

GEFSSE_500_meanwind_072.txt.gz
Wind_Speed
9 9 9 9 9 10 10 10 9 9 9 9 9 9 9 10 11 12 13 14 15 15 16 16 17 18 18 18 18 18 17 16 16 15 14 14 13 12 11 10 8 7 6
10 10 10 10 11 12 12 12 12 11 12 11 11 11 11 11 12 12 13 13 14 15 15 16 16 17 17 18 18 17 17 17 17 16 16 16 15 14 13 11 8 7 5
11 12 12 12 13 13 13 13 14 14 14 14 14 14 13 13 13 13 13 14 14 15 15 16 16 17 17 17 17 17 17 17 17 17 17 16 16 15 14 12 9 7 5
14 15 15 16 16 15 15 15 16 17 17 17 18 17 16 16 15 15 14 14 14 15 15 15 15 16 16 17 17 17 16 16 16 17 17 16 16 15 14 12 9 7 6
18 18 18 18 19 19 19 19 19 20 20 19 20 21 20 19 18 17 16 15 15 15 15 15 15 15 16 16 16 15 15 15 15 15 16 15 14 13 12 10 9 7 6
21 21 21 22 22 23 22 22 22 23 23 22 22 23 23 23 22 20 19 18 17 16 16 15 15 15 15 15 15 14 14 14 14 14 13 13 12 11 10 9 8 8 7
24 25 25 25 25 25 26 26 26 26 26 25 25 25 25 26 26 25 23 21 20 18 17 17 16 15 14 14 13 13 13 13 13 12 12 10 10 10 10 9 8 9 8
26 26 26 26 27 27 27 27 28 28 29 28 28 28 28 27 29 28 27 25 23 21 20 19 17 16 15 14 13 12 12 12 11 11 10 10 9 10 10 10 8 9 9
28 28 28 28 28 28 28 28 29 30 30 31 31 30 30 30 29 30 29 28 26 24 22 21 19 17 16 14 14 13 12 11 11 10 9 9 9 9 9 9 9 9 10
28 28 28 28 28 29 29 29 29 30 31 32 33 33 32 32 32 31 31 30 29 27 26 24 22 20 18 16 14 13 12 11 11 10 9 9 8 9 9 9 8 9 11
26 25 26 25 26 26 27 27 28 29 30 32 33 34 34 32 31 32 32 31 31 30 29 27 25 22 20 18 16 14 13 12 11 10 10 9 9 9 9 8 9 9 11
22 23 23 23 23 23 23 24 25 27 28 30 31 33 34 34 33 31 32 33 32 32 32 30 28 25 23 21 18 16 14 13 12 11 11 10 9 9 9 9 9 10 11
21 21 21 21 22 22 22 22 23 24 25 27 28 29 31 33 33 33 31 31 32 32 32 31 29 27 25 24 21 19 16 15 14 13 12 12 11 10 10 10 10 11 11
20 20 20 20 20 20 20 20 20 21 22 23 25 26 28 30 31 32 33 32 30 31 30 31 30 29 28 26 24 22 20 18 16 14 14 13 12 12 11 11 11 11 12
19 19 19 20 20 20 20 19 19 19 19 20 22 23 25 26 29 30 31 32 31 30 30 31 31 30 29 27 25 24 23 21 19 17 16 15 14 13 12 12 12 12 13
19 18 18 19 19 19 19 18 18 18 18 18 18 19 21 23 25 27 29 30 30 30 30 30 30 31 31 29 28 27 25 24 22 21 19 18 17 15 14 14 14 13 14
19 19 19 19 19 19 18 18 17 16 15 15 15 16 18 19 21 24 26 27 28 29 30 30 30 30 32 32 30 29 29 28 26 24 23 21 19 18 17 16 15 14 15
19 20 19 19 19 18 17 16 15 14 13 13 13 14 15 17 18 20 22 24 26 27 29 30 31 31 31 33 32 30 30 30 29 27 25 24 22 20 19 18 17 16 15
20 20 19 19 18 17 16 16 14 13 12 11 10 11 11 13 15 17 19 21 23 25 26 27 29 30 32 33 33 33 32 31 31 30 28 27 26 23 22 21 19 17 17
19 19 19 19 19 18 17 16 15 13 11 10 9 8 9 11 12 14 16 18 21 23 24 25 27 28 30 33 34 33 32 31 31 32 30 29 28 26 25 23 22 20 19
19 19 20 20 20 19 19 18 16 15 13 11 9 7 8 9 10 12 14 15 17 19 22 24 26 27 29 30 33 34 33 32 32 33 33 31 30 29 28 27 25 24 22
18 19 20 20 21 20 20 19 18 17 15 13 10 8 6 6 7 9 11 12 15 17 19 22 24 27 28 29 31 33 34 35 35 35 35 35 34 32 31 30 28 27 26
17 18 19 20 21 21 21 20 19 18 17 15 13 11 9 7 7 7 8 9 12 15 17 19 22 24 27 29 30 33 34 35 36 37 36 36 36 36 34 33 33 31 30
17 18 19 20 21 21 21 21 20 20 19 17 16 13 11 9 8 7 7 8 9 11 14 17 20 22 24 27 29 31 34 34 35 35 36 36 37 37 36 35 35 35 34
16 17 18 19 20 21 21 21 21 21 20 19 17 16 14 12 10 9 7 7 8 9 11 14 16 19 22 25 27 30 32 34 35 36 37 37 37 38 38 38 37 38 37
15 16 18 19 19 20 20 20 20 20 20 19 19 18 16 15 13 11 10 8 7 8 9 11 14 17 20 23 26 28 30 32 35 36 37 38 38 38 39 39 39 39 40

GEFSSE_500_meanwind_078.txt.gz
Wind_Speed
9 10 9 10 10 11 12 12 12 11 10 10 9 8 7 7 8 8 9 10 10 11 11 11 12 12 13 13 13 13 14 14 14 14 14 13 13 12 11 10 9 8 6
10 12 11 11 12 13 14 14 14 14 13 12 12 11 10 10 10 10 10 10 11 11 11 11 12 12 13 13 14 14 14 14 15 15 15 14 14 13 12 11 9 8 6
12 14 14 15 15 16 16 17 17 16 16 16 15 14 14 13 13 12 12 11 12 12 12 12 12 12 13 13 13 14 14 14 14 15 15 15 14 14 12 11 9 8 6
16 17 17 18 19 19 19 19 20 20 19 19 19 18 17 16 16 15 15 14 13 12 12 12 12 12 12 12 12 13 13 13 14 14 15 14 14 13 12 11 10 8 6
18 19 20 21 21 22 22 22 23 23 22 22 21 21 20 19 19 18 18 16 15 14 13 13 13 12 12 12 12 12 13 13 13 13 13 13 13 13 12 11 9 7 6
21 22 23 23 24 25 25 25 25 26 26 26 25 24 23 22 21 21 20 19 18 17 16 15 14 13 13 13 12 12 13 13 13 12 12 12 12 12 11 10 8 7 7
22 24 25 26 26 26 27 27 28 28 29 29 29 28 26 25 24 23 23 22 21 20 19 17 16 15 14 13 12 12 12 12 12 12 12 11 11 10 10 9 8 8 8
23 24 25 26 26 26 26 27 27 28 29 29 30 30 29 28 27 26 25 24 24 23 22 20 18 17 16 14 13 12 12 12 11 11 11 10 10 9 9 8 8 8 8
23 24 24 25 25 25 25 26 26 27 28 29 30 31 31 31 30 28 28 27 26 26 25 24 22 19 17 16 14 13 12 12 11 11 10 9 9 8 9 9 9 9 9
22 22 22 22 22 22 22 23 24 25 26 27 29 30 31 31 31 31 30 29 28 27 27 26 24 22 20 18 16 14 13 12 11 11 10 9 9 8 9 9 9 9 10
21 21 21 21 21 21 21 22 22 23 24 25 26 28 30 31 32 32 30 29 29 28 27 27 26 23 22 20 18 16 15 13 12 11 10 9 9 8 9 9 9 9 10
19 20 20 20 20 20 21 21 21 21 22 23 24 25 27 29 30 31 31 31 30 30 28 26 27 25 23 21 20 19 17 15 13 12 11 10 9 9 9 9 9 10 10
18 18 19 19 19 19 19 19 19 19 20 20 21 23 25 26 28 29 30 31 31 30 30 28 26 26 24 22 21 21 19 17 15 13 13 12 11 10 10 10 10 10 11
17 18 19 19 19 19 19 18 18 19 19 19 20 20 22 23 25 27 28 29 30 30 30 30 29 28 26 24 23 22 21 19 18 16 14 13 13 12 11 10 11 11 11
17 18 18 19 18 18 18 17 17 18 18 19 19 19 20 20 21 23 26 27 28 28 28 28 28 29 29 26 25 24 23 21 19 17 16 15 14 13 12 11 12 12 12
17 18 18 19 19 18 17 17 16 16 16 16 16 16 17 18 18 20 22 24 26 27 27 28 28 27 28 28 28 26 24 23 23 20 19 17 16 15 14 13 13 13 13
16 17 18 18 19 18 18 17 17 17 16 15 14 14 14 15 16 17 19 21 22 24 26 27 27 28 27 28 29 28 26 25 24 23 22 20 18 17 16 15 15 15 15
15 16 17 18 19 19 19 18 17 17 15 14 13 12 11 12 13 14 15 17 19 21 23 25 26 26 27 28 29 29 28 27 26 25 24 23 22 20 19 17 17 16 16
15 16 17 18 19 20 20 19 18 17 16 14 13 12 10 10 10 11 12 14 16 17 19 22 24 26 26 27 28 29 30 29 28 26 26 26 25 23 22 21 20 18 18
14 16 17 19 20 20 20 20 19 18 17 16 15 13 11 9 8 8 9 11 13 15 17 19 21 23 25 26 27 29 30 31 31 28 28 28 27 26 25 24 23 21 20
14 16 17 19 19 20 20 21 20 20 18 17 16 15 12 10 8 6 7 8 10 12 14 17 19 21 23 25 27 27 29 31 32 31 30 29 30 29 28 27 26 25 24
13 15 17 18 19 20 20 21 21 21 20 19 18 16 14 12 9 6 5 6 8 9 12 14 17 19 21 24 26 28 29 30 31 30 31 31 32 32 31 31 29 28 26
12 14 16 17 18 19 20 20 21 21 20 20 18 17 15 14 11 9 7 5 6 7 10 12 14 17 20 22 24 26 28 29 31 32 32 32 32 33 32 32 31 31 30
12 13 15 17 18 19 20 20 20 20 20 20 20 18 16 15 13 11 9 7 6 5 7 9 12 15 18 20 22 25 27 28 29 32 34 34 34 34 35 35 34 34 33
11 12 14 16 17 18 19 20 20 20 20 20 20 18 17 15 14 12 11 9 7 5 5 7 9 12 15 18 20 23 25 27 29 29 33 34 35 35 36 37 37 37 36
10 12 14 15 17 18 19 19 20 20 20 19 19 18 17 16 15 13 12 11 9 7 5 5 7 10 13 15 17 20 23 26 29 29 30 33 36 38 38 39 39 39 39

GEFSSE_500_meanwind_084.txt.gz
Wind_Speed
9 9 9 10 10 10 10 11 11 10 11 11 11 11 12 12 13 13 14 14 14 14 14 14 14 14 14 13 13 13 12 12 11 11 11 10 9 8 8 7 7 6 5
11 12 12 12 13 13 14 14 14 14 14 14 14 14 14 14 14 14 15 15 15 15 15 14 15 15 14 14 14 14 13 12 12 11 11 10 10 9 9 8 7 6 5
13 14 15 15 15 16 17 17 17 17 17 17 17 16 16 16 16 16 16 16 17 17 16 16 15 15 15 15 15 14 14 13 12 12 11 10 10 10 9 8 7 6 5
15 16 17 17 18 19 20 21 21 21 21 21 20 19 19 19 18 18 19 19 19 19 18 17 17 16 15 15 15 14 14 13 12 11 11 11 10 10 9 9 8 7 6
17 17 18 19 20 21 22 23 23 24 24 24 24 23 22 22 21 21 21 21 21 21 20 19 18 17 16 15 15 15 14 13 12 11 11 10 10 10 9 9 8 8 7
18 19 20 21 21 21 22 23 24 26 26 27 28 28 27 26 25 24 23 23 23 22 21 21 20 18 17 16 15 15 14 13 12 11 11 10 10 10 10 10 9 8 8
20 20 21 21 21 22 23 23 25 26 27 28 29 29 29 28 28 27 26 25 24 24 24 23 21 20 19 18 17 16 14 13 12 12 11 10 10 10 10 10 9 9 9
19 20 20 20 21 22 22 23 23 24 25 26 28 29 29 29 29 29 29 28 27 25 25 24 22 21 20 19 18 17 15 14 13 12 11 11 11 10 10 10 10 10 10
18 18 18 19 19 20 20 21 21 22 23 24 26 27 28 29 29 30 31 31 30 29 26 24 24 24 22 21 20 18 16 15 13 12 12 11 11 10 10 10 10 11 11
16 16 17 17 18 18 19 19 20 21 22 22 24 25 26 27 28 29 30 31 31 30 30 27 25 25 24 23 21 20 18 16 14 13 12 12 11 11 10 11 11 12 12
15 15 16 16 16 16 17 18 19 19 20 21 22 22 23 25 27 28 29 30 30 30 30 30 27 26 25 24 22 21 20 18 16 14 13 12 12 11 11 11 11 12 13
13 14 14 15 15 15 16 17 18 18 19 19 20 20 21 22 24 25 27 28 30 29 29 29 28 28 26 25 23 22 22 19 17 16 14 13 13 12 12 12 12 13 14
11 12 12 13 14 15 16 16 16 17 17 18 19 20 20 20 21 23 25 26 27 28 29 28 28 28 27 25 25 22 23 21 19 18 16 14 14 13 12 13 13 14 15
10 10 11 12 13 14 15 15 15 15 15 16 17 18 18 19 20 21 23 24 25 26 27 28 26 27 28 27 26 24 23 22 21 20 18 16 15 14 13 13 14 15 15
8 9 10 12 13 13 14 15 15 14 14 15 15 15 16 18 19 20 21 22 24 24 25 27 26 26 26 26 25 24 23 23 21 20 19 18 17 15 15 14 14 14 16
7 8 10 11 12 13 14 15 15 15 14 13 13 13 14 15 15 17 18 19 20 22 23 24 26 26 26 25 25 25 25 24 22 22 21 20 18 17 16 16 15 14 16
7 8 9 11 12 14 15 15 15 16 15 13 12 12 12 12 12 13 14 16 18 19 20 22 24 25 25 24 25 26 26 25 24 23 22 21 20 19 18 17 16 15 16
6 8 9 11 12 13 15 15 16 16 16 14 13 12 11 11 10 10 11 13 15 17 18 20 21 23 25 25 25 26 26 27 26 25 24 22 21 20 20 18 17 16 16
5 7 9 11 12 13 14 15 16 16 16 15 14 12 11 11 9 8 8 10 12 14 16 18 19 20 22 24 24 26 27 27 27 26 25 25 24 22 21 20 19 18 18
5 7 8 10 12 13 14 15 16 16 16 16 14 13 12 10 9 7 6 7 9 12 14 15 17 18 20 23 25 26 26 27 28 28 27 26 26 25 24 23 22 21 20
4 6 8 10 11 12 14 15 15 16 17 16 15 14 12 10 9 7 5 4 5 8 12 13 14 16 17 20 23 26 25 25 27 29 29 29 28 27 26 25 25 23 22
4 6 8 9 11 12 13 14 15 16 16 16 15 14 13 11 9 7 5 3 2 4 8 10 13 15 16 18 20 23 25 26 27 29 29 29 29 29 28 28 27 25 24
4 6 8 9 11 12 13 14 15 16 16 16 16 14 13 12 10 8 7 4 2 2 4 7 10 12 14 17 19 20 21 24 27 29 29 29 28 29 30 29 29 28 26
4 5 7 9 11 12 13 14 15 16 16 16 16 15 13 12 11 9 8 6 4 1 2 4 7 10 12 15 18 19 20 22 24 27 29 30 30 30 31 32 31 30 29
4 6 7 9 11 12 13 14 14 15 15 16 16 15 14 12 11 10 8 7 5 3 1 1 4 6 9 11 14 18 19 22 22 24 27 29 30 30 31 32 32 32 32
4 6 7 9 11 12 13 14 14 14 14 15 15 15 14 12 11 10 9 8 6 5 3 2 2 4 6 9 12 14 17 20 22 23 25 27 29 31 32 33 34 34 33

GEFSSE_500_meanwind_090.txt.gz
Wind_Speed
11 11 12 12 13 13 14 14 14 14 14 14 15 15 15 15 16 17 17 17 18 18 18 18 18 18 18 17 16 16 15 14 14 13 12 11 10 9 8 6 6 5 5
12 13 14 15 15 16 16 17 17 17 17 17 17 17 17 18 18 18 18 18 19 19 19 19 19 19 19 18 17 17 17 16 15 14 13 12 11 10 9 7 6 5 4
13 14 15 16 17 18 18 19 19 20 20 20 20 20 20 20 20 20 20 20 21 21 21 21 20 20 19 18 18 18 18 17 16 15 14 13 12 11 9 8 7 5 4
14 15 17 18 18 19 20 21 21 22 22 23 23 23 23 23 22 22 23 22 22 22 22 22 22 21 20 19 19 18 18 18 17 16 15 14 13 11 10 9 8 6 5
16 17 18 19 19 20 21 22 22 23 23 24 25 24 25 25 25 24 25 25 25 24 24 23 24 23 22 21 20 19 18 18 17 16 15 14 13 12 11 9 8 7 6
17 18 19 20 20 20 21 21 22 22 23 24 25 25 26 26 27 27 27 28 27 26 26 25 24 24 23 23 21 19 19 18 17 16 15 14 14 12 11 10 9 8 7
17 18 19 19 19 20 20 20 20 21 21 22 23 24 25 25 27 27 28 28 29 29 29 28 26 25 25 24 22 21 20 18 17 17 15 15 14 13 12 11 10 9 9
18 18 17 18 18 18 18 18 19 19 20 20 21 22 23 24 26 27 27 27 29 29 29 29 29 27 26 25 23 22 21 20 18 17 16 15 15 14 13 12 11 10 9
17 17 16 16 16 17 17 17 17 18 18 19 20 21 22 23 24 25 27 27 28 30 30 29 29 29 27 27 25 24 22 21 20 18 16 15 15 14 13 12 12 11 11
16 15 15 14 14 14 15 16 16 17 17 18 18 19 20 20 22 23 24 26 27 29 29 29 29 30 29 27 26 25 24 22 21 19 17 16 16 14 13 13 12 12 12
14 13 13 13 14 14 14 15 16 16 17 17 18 18 19 19 20 21 22 24 26 27 28 29 30 30 30 29 27 26 25 23 22 20 18 17 16 15 14 13 13 13 13
12 12 12 13 14 14 15 15 16 17 17 17 17 18 18 19 19 20 21 22 23 24 26 27 28 29 29 29 27 25 25 24 23 21 20 18 17 16 15 14 14 13 14
11 11 12 12 13 14 15 16 16 17 18 18 18 18 18 19 19 19 19 20 21 22 23 25 26 27 27 29 28 26 25 24 23 22 21 20 18 17 16 15 15 14 14
10 10 11 12 13 14 15 16 17 18 18 19 19 19 18 18 18 18 18 18 19 20 21 23 24 25 26 27 28 26 25 25 24 22 21 21 20 18 17 16 16 15 15
9 10 11 12 13 14 16 17 17 18 19 19 20 19 19 18 17 17 17 17 18 18 20 21 22 23 24 25 26 25 24 24 24 24 22 22 20 20 19 17 16 15 15
9 10 11 12 13 15 16 17 18 19 19 20 20 20 19 17 16 16 16 16 17 17 18 20 21 22 23 24 25 25 23 23 23 24 24 23 22 21 19 18 17 16 15
9 10 11 12 14 15 17 18 19 19 20 20 21 20 19 17 16 15 15 15 14 15 15 17 19 20 22 23 24 24 24 24 23 24 24 24 22 21 20 19 17 16 16
9 10 11 12 14 16 17 18 19 20 20 21 21 20 19 18 16 15 14 14 13 12 13 14 15 17 19 21 23 24 24 24 23 24 24 24 23 22 21 20 18 16 16
9 9 11 12 14 16 17 18 19 20 21 21 21 20 19 17 16 15 14 12 11 10 11 13 14 16 17 19 21 23 23 24 24 24 24 24 24 24 22 21 20 18 17
9 9 11 12 14 16 17 18 19 20 20 21 21 20 19 17 15 14 13 11 10 8 8 10 12 15 16 17 19 21 23 24 23 24 24 24 25 24 23 22 21 20 18
9 9 11 12 14 16 17 18 19 20 20 21 21 20 19 17 15 13 12 10 9 7 5 6 9 12 13 14 16 19 21 23 23 23 24 24 26 25 24 24 23 22 20
8 9 10 12 14 16 17 18 19 19 20 20 20 19 18 17 15 13 11 10 8 6 4 4 6 8 10 12 14 16 18 21 24 25 24 25 25 26 26 25 24 23 22
8 9 10 12 14 16 17 18 18 19 19 19 19 19 17 16 15 13 11 10 9 6 4 2 3 6 7 9 12 15 16 18 21 23 24 24 25 25 26 25 24 24 23
9 9 10 12 14 16 17 18 18 18 18 18 18 18 17 15 14 13 12 11 9 7 4 2 1 3 5 7 9 12 14 16 18 19 22 24 24 25 26 26 26 26 26
9 9 10 12 14 16 17 18 17 17 17 17 17 17 16 15 13 12 11 10 9 7 5 3 1 1 3 5 7 10 12 15 16 17 19 21 23 24 26 26 26 27 27
9 9 10 11 13 15 16 17 16 16 16 16 16 16 16 15 13 11 10 9 8 7 6 4 2 1 1 4 6 8 10 12 14 16 19 20 22 24 26 27 27 28 28

GEFSSE_500_meanwind_096.txt.gz
Wind_Speed
8 9 10 11 12 13 13 14 14 15 16 16 17 17 18 18 18 19 19 20 19 19 19 20 19 18 18 18 17 17 17 16 15 15 14 13 11 10 9 7 6 5 4
10 11 11 13 13 14 15 15 16 17 18 19 19 20 21 21 21 22 21 21 21 21 21 21 21 20 20 19 19 18 17 16 16 15 14 13 12 11 10 9 7 5 4
11 12 13 14 15 15 16 17 18 19 20 20 21 21 22 22 23 23 23 23 24 23 23 22 22 22 22 21 20 19 18 17 17 16 15 15 13 12 11 9 8 6 4
12 13 14 14 15 16 17 17 18 19 20 21 21 22 22 23 23 24 24 25 26 26 26 24 24 23 23 23 22 20 19 18 17 16 16 15 14 13 12 11 9 7 5
12 13 14 15 15 16 17 17 18 18 19 19 20 21 22 22 23 24 25 26 26 27 27 26 25 25 24 23 23 22 20 18 18 17 16 16 15 13 13 12 10 8 6
12 12 14 14 14 15 15 16 16 17 17 17 18 18 20 21 22 23 24 24 25 27 28 28 27 27 26 24 23 23 21 19 18 17 17 16 15 14 13 12 11 9 7
12 13 13 12 12 13 13 14 14 15 15 15 16 17 18 19 20 21 23 23 24 25 27 28 29 28 28 26 25 24 23 20 19 18 17 16 15 14 13 12 11 10 8
12 12 12 11 11 11 12 12 13 13 14 14 15 16 17 18 19 20 21 22 23 24 25 26 28 28 28 28 27 25 24 21 19 18 17 16 15 14 14 13 12 10 10
11 11 11 11 11 11 11 12 12 13 13 14 15 16 16 17 18 19 20 22 23 23 24 25 27 27 28 28 27 26 25 23 21 19 17 16 16 15 14 13 12 12 11
10 10 10 10 10 10 11 11 12 13 14 15 15 16 17 17 18 18 19 21 22 23 24 25 27 27 27 28 27 27 26 24 22 20 19 17 16 16 15 14 13 13 12
9 9 8 8 9 10 10 11 12 13 14 15 16 17 17 18 18 18 19 19 20 21 23 24 26 27 27 27 28 27 26 24 23 22 21 19 17 16 16 14 13 14 13
9 8 7 7 8 9 10 11 13 14 15 16 17 18 18 18 19 19 19 19 19 20 21 23 24 26 26 27 28 28 27 24 23 22 21 20 19 17 16 16 15 14 14
8 7 7 7 8 9 11 12 13 15 16 17 18 19 19 19 19 19 19 18 19 19 19 20 22 24 25 26 27 27 27 26 24 23 22 21 20 18 17 16 16 15 15
7 6 7 8 9 10 12 14 15 16 17 18 19 19 20 20 20 19 18 17 17 17 18 19 20 22 23 25 25 27 28 26 25 24 23 22 20 19 18 17 15 16 16
7 7 8 9 10 11 13 15 16 17 18 18 19 20 20 20 20 19 17 16 16 16 16 17 19 21 21 23 25 26 27 27 25 25 23 23 22 20 19 17 16 16 16
7 8 8 9 10 12 14 15 16 17 18 19 20 20 20 20 20 19 17 16 15 14 14 15 16 19 20 21 23 25 27 28 26 25 24 24 22 21 19 19 18 18 17
7 7 8 9 10 12 14 16 17 18 19 19 20 20 20 20 20 19 17 16 14 13 13 14 15 17 20 20 22 25 28 27 26 25 25 25 24 22 20 20 19 19 18
7 7 8 9 11 13 14 16 17 18 19 19 19 20 20 20 20 19 17 15 13 12 11 12 14 16 19 20 21 24 27 28 26 25 25 25 24 23 22 21 20 20 19
7 7 8 9 11 13 15 17 18 18 19 19 19 20 20 20 19 18 16 14 12 10 10 10 12 14 17 18 20 23 25 27 27 26 25 25 25 25 24 23 22 21 20
7 7 8 9 11 13 15 17 18 18 19 19 19 19 20 19 19 17 15 13 12 10 8 8 9 12 15 17 19 21 23 26 26 25 26 25 25 25 24 24 23 22 21
6 7 8 9 10 13 15 17 18 18 18 18 18 19 19 19 18 17 15 13 11 9 8 6 7 9 12 15 17 19 21 23 24 25 25 25 25 25 24 24 24 23 22
6 7 8 9 10 13 15 17 18 17 17 18 18 18 18 19 18 16 16 13 11 9 7 5 3 6 10 12 14 16 20 22 23 24 25 25 25 25 25 25 24 24 23
6 7 7 8 10 12 14 16 17 17 16 17 17 18 18 18 17 16 16 13 10 8 6 3 1 3 7 10 13 16 18 19 21 23 24 24 24 25 25 25 25 25 24
6 7 7 8 9 12 14 15 16 16 16 17 17 17 17 17 17 16 15 13 11 9 6 4 1 2 5 7 11 14 16 18 19 21 22 23 23 24 25 25 25 25 25
7 7 7 8 9 11 13 14 15 15 15 16 17 17 17 17 16 15 14 12 10 8 6 4 2 1 4 6 9 12 14 16 18 20 21 22 23 24 24 24 25 25 26
7 7 7 8 9 10 12 13 14 14 15 16 16 16 16 16 16 15 13 11 10 8 7 5 4 2 4 6 8 10 12 13 15 18 20 21 21 23 24 24 24 25 26

GEFSSE_500_meanwind_102.txt.gz
Wind_Speed
7 8 8 10 11 13 14 15 15 16 16 16 16 17 17 17 18 18 17 18 17 17 18 17 17 16 16 15 13 13 12 12 11 11 10 9 8 8 7 6 5 5 5
7 8 9 11 12 13 14 15 15 15 16 16 17 17 18 18 18 18 18 18 19 19 19 19 19 18 17 16 15 14 14 13 12 11 11 10 9 8 7 6 5 5 4
8 9 10 11 12 13 14 14 15 16 16 16 16 17 17 17 18 18 18 19 19 20 20 20 20 19 18 18 17 16 15 14 13 12 11 11 10 9 8 6 6 5 4
8 9 10 11 11 12 12 14 14 15 15 15 15 15 16 16 17 17 18 18 19 19 20 21 21 21 21 19 18 17 16 15 14 13 12 11 10 9 8 7 6 5 4
9 9 10 10 11 12 12 13 13 14 14 13 14 14 15 15 16 16 17 18 18 19 20 21 21 22 21 21 20 18 17 16 15 14 13 12 11 10 9 8 6 5 4
8 9 10 10 11 11 12 12 12 12 12 12 13 13 14 15 15 16 17 17 18 19 20 21 21 22 21 21 21 20 19 17 16 14 13 12 11 10 9 9 7 6 5
8 9 10 10 10 11 11 11 11 11 11 12 12 13 14 14 15 16 17 17 18 19 20 21 21 21 22 22 21 21 20 18 17 16 14 13 12 11 10 9 8 8 7
9 9 9 9 9 10 10 10 11 11 12 12 13 13 14 15 15 16 17 17 18 19 20 21 21 22 22 22 22 21 21 20 18 17 15 13 12 11 10 10 9 9 8
9 9 9 8 8 9 9 10 10 11 12 13 14 14 15 16 16 16 16 17 17 18 19 20 21 22 22 23 23 22 21 21 20 18 16 14 13 12 11 10 10 10 9
9 9 8 7 7 8 9 10 10 11 12 13 14 15 16 17 17 16 17 17 17 18 18 19 20 21 22 23 23 23 21 21 20 19 18 16 14 13 12 11 11 11 11
9 8 8 8 8 8 9 10 11 12 13 14 15 16 17 17 17 17 17 17 18 18 18 18 19 21 22 22 23 23 22 22 21 20 19 18 17 15 14 13 12 12 12
8 7 8 7 8 8 9 11 12 13 14 15 16 17 17 17 17 17 17 18 18 18 18 18 19 20 21 22 22 22 22 23 22 21 21 20 18 17 16 15 14 13 13
7 7 7 7 8 9 10 11 13 14 15 16 17 17 17 17 17 17 18 18 18 18 18 18 19 19 20 21 22 22 22 23 23 23 22 21 20 18 17 16 15 14 14
7 6 7 7 8 9 10 11 13 14 15 16 17 17 17 17 17 18 18 18 18 18 18 18 18 19 19 20 21 22 22 23 23 24 23 22 21 19 19 17 16 15 15
7 7 7 8 8 9 10 12 13 14 16 17 17 17 17 18 18 18 18 18 18 18 18 17 17 18 19 19 21 22 23 23 24 24 24 23 22 20 19 18 18 17 16
7 7 7 8 8 9 10 12 13 15 16 17 17 17 17 18 18 18 18 18 18 17 17 16 16 16 18 19 20 21 22 23 23 25 25 24 23 22 20 19 18 19 18
7 7 7 7 8 9 10 12 13 15 16 17 16 17 17 18 18 18 18 18 18 17 16 15 15 15 16 18 19 20 22 23 24 24 25 25 24 23 22 20 20 19 18
8 7 7 7 7 8 10 12 13 15 16 17 16 17 18 18 18 18 18 18 17 17 15 14 14 14 14 16 18 19 21 23 24 25 25 26 25 23 22 22 21 21 19
8 8 7 7 7 8 10 12 14 15 16 16 17 17 18 18 18 18 18 18 17 16 15 13 12 12 12 14 16 18 20 23 23 24 25 24 25 24 23 23 22 21 20
9 8 7 7 7 8 10 12 14 15 16 16 17 17 18 18 18 18 18 17 17 15 14 12 10 10 10 11 14 16 19 21 23 24 25 25 24 24 23 23 22 21 20
9 8 7 7 7 8 10 12 13 14 16 16 17 18 18 18 18 18 18 17 16 15 13 10 8 8 8 9 12 14 17 20 22 23 25 24 24 25 24 23 23 22 21
8 8 7 6 7 8 9 11 13 14 15 16 17 18 18 18 18 18 17 16 15 14 12 9 7 6 7 8 10 13 16 18 20 23 24 24 24 25 24 24 23 22 21
8 8 7 6 7 8 9 11 12 14 15 16 17 18 18 18 17 18 17 15 14 13 11 9 7 4 4 6 7 10 13 17 18 21 23 24 24 23 24 24 25 23 22
8 8 7 6 7 8 9 10 12 13 15 16 17 18 18 18 17 17 17 15 14 12 11 9 6 4 2 4 6 8 11 15 17 19 21 23 24 23 23 23 24 23 23
8 8 7 7 7 8 9 9 11 12 14 16 17 18 18 18 17 16 16 15 13 12 10 8 6 3 2 2 4 7 10 13 15 18 19 21 22 23 23 23 23 23 23
8 8 8 8 8 8 9 9 10 12 14 15 16 17 18 18 17 16 16 14 13 11 9 7 6 3 1 1 3 6 9 11 13 15 17 20 21 21 21 22 24 23 22

GEFSSE_500_meanwind_108.txt.gz
Wind_Speed
4 4 5 6 6 7 8 9 9 10 10 11 11 11 11 12 12 12 13 13 13 13 13 14 14 14 14 13 12 11 11 10 9 8 7 6 6 5 5 5 3 2 2
5 5 6 6 6 7 8 9 10 11 11 11 11 11 11 11 11 12 12 12 13 13 14 14 14 15 15 15 14 13 12 12 11 9 8 8 7 6 6 5 4 3 2
5 6 6 6 7 7 8 9 10 11 11 10 10 10 10 10 11 11 11 12 13 13 14 14 14 15 15 15 15 14 13 13 12 11 10 9 8 7 6 6 5 4 3
5 6 6 6 7 7 8 9 10 10 10 10 10 9 9 9 10 11 12 12 13 13 13 14 15 14 15 16 16 16 15 14 14 13 11 10 10 8 7 7 6 5 5
5 5 6 6 7 8 9 9 9 9 9 9 9 9 10 10 10 11 12 13 13 14 14 15 15 15 15 16 17 17 17 16 15 14 13 12 11 10 9 8 7 7 6
5 5 6 7 7 8 8 8 8 8 8 9 9 10 11 11 12 12 13 13 14 14 15 15 16 16 16 16 17 18 18 17 17 16 14 13 12 11 10 9 9 8 7
5 6 6 7 7 8 8 7 7 8 9 9 10 11 12 13 13 14 14 14 14 15 15 15 16 16 16 17 18 18 19 19 18 17 16 15 13 12 12 11 10 9 8
5 6 7 7 7 7 7 7 8 9 10 10 11 12 13 14 14 15 15 15 15 15 15 15 15 15 16 17 18 18 18 20 19 18 18 17 15 14 13 12 11 11 10
6 6 7 7 6 6 7 7 8 9 10 11 12 13 14 15 15 15 15 16 16 16 16 15 15 15 15 16 17 18 19 20 20 19 19 19 17 15 14 14 13 12 12
6 6 6 6 6 6 7 8 9 10 11 12 13 14 15 15 15 16 16 15 16 16 16 16 16 15 15 16 17 18 20 20 20 20 20 20 19 17 16 15 14 13 13
6 6 6 6 6 7 7 8 10 11 12 13 13 14 15 15 16 16 16 16 16 16 17 17 17 16 16 16 17 18 19 20 21 21 21 21 20 19 17 16 15 15 14
7 7 7 7 7 7 8 9 10 12 13 13 14 15 15 16 16 16 16 17 17 17 17 17 17 17 17 17 17 18 19 21 22 21 22 22 22 21 19 18 16 16 16
7 8 8 7 8 8 9 10 11 13 14 14 15 15 16 16 16 16 17 17 17 17 17 17 18 18 18 18 18 18 20 21 22 23 22 23 23 22 21 19 18 17 17
8 8 8 8 8 9 10 11 12 13 14 15 15 15 16 16 16 16 17 17 17 17 17 18 18 17 18 18 18 18 20 21 22 23 23 24 24 24 22 21 19 18 18
8 9 9 9 9 9 10 11 12 13 14 15 15 15 15 16 16 17 17 17 17 17 18 18 17 17 17 18 18 18 20 21 22 23 24 24 25 25 23 22 21 20 20
9 9 9 9 10 10 11 12 13 13 14 14 15 15 16 16 16 17 17 18 17 17 18 18 17 17 16 16 17 18 19 21 23 24 24 25 26 26 25 23 22 21 21
9 10 10 10 10 11 11 12 12 13 14 15 15 16 16 17 17 17 17 18 17 18 18 18 17 16 15 15 16 18 19 21 23 24 25 26 26 27 26 25 23 22 22
10 10 10 10 11 11 11 11 12 13 14 15 15 16 17 17 17 17 17 18 18 18 18 17 16 15 15 15 15 17 19 21 23 25 25 26 27 27 27 26 25 23 22
10 10 10 10 11 11 11 12 12 13 14 15 15 16 17 18 18 17 18 18 18 19 18 16 15 14 13 13 13 15 17 20 22 25 25 26 27 27 26 26 26 24 23
10 10 10 10 11 11 11 11 12 13 14 15 15 16 17 18 18 18 18 18 19 19 17 14 13 12 11 11 12 13 15 18 22 24 26 26 26 27 27 26 25 24 23
10 10 10 10 11 11 11 11 12 13 14 14 15 16 17 19 19 19 18 19 18 18 16 13 11 10 9 9 10 12 14 16 20 23 26 26 26 27 27 27 26 25 24
9 10 10 10 10 11 11 11 12 12 13 14 15 16 17 19 20 20 18 18 18 17 15 13 11 9 7 7 8 10 13 15 19 22 24 25 25 26 27 27 26 25 25
9 9 10 10 10 10 11 11 12 12 13 14 15 16 17 19 20 20 19 18 17 16 15 13 10 8 6 5 7 9 11 14 18 20 22 24 25 26 27 28 27 26 25
9 9 10 10 10 10 11 11 12 12 13 14 15 16 17 19 20 20 19 18 17 16 15 12 9 7 5 4 5 7 9 12 16 18 21 23 24 25 26 27 27 26 26
9 9 10 10 10 10 11 12 12 13 13 14 15 16 17 18 19 20 19 18 17 17 15 12 9 6 4 2 3 5 8 11 14 16 19 22 23 24 25 27 27 26 25
9 9 9 9 10 10 11 12 13 14 14 15 15 16 17 18 19 19 19 18 18 17 15 12 9 7 4 2 2 4 7 9 12 15 18 20 22 23 24 27 27 26 25

GEFSSE_500_meanwind_114.txt.gz
Wind_Speed
4 5 6 7 8 8 9 9 9 9 9 10 10 10 10 11 11 11 11 11 11 11 12 12 13 13 13 13 14 14 13 13 13 11 10 9 8 7 6 6 5 4 4
5 6 8 8 8 8 8 9 9 9 10 10 10 11 10 11 11 11 11 11 12 12 12 12 13 14 14 14 14 15 15 14 14 13 11 10 9 8 8 7 6 5 4
6 8 8 8 8 8 9 10 10 9 9 9 10 10 10 10 11 11 11 12 12 12 12 12 13 13 14 14 14 14 14 15 15 15 13 12 11 10 9 8 7 5 4
7 8 8 8 9 9 10 10 10 10 10 9 10 10 10 11 11 12 12 13 12 13 13 13 14 14 14 14 15 15 16 15 16 15 15 14 12 11 10 9 7 6 5
7 8 8 9 9 9 9 10 10 10 10 10 10 11 11 12 12 13 13 13 13 13 14 13 13 13 14 15 15 16 16 16 16 16 15 15 14 12 11 10 9 7 6
8 9 9 9 9 9 9 10 10 9 9 10 11 12 12 13 13 13 13 13 14 14 14 14 14 14 14 15 15 16 16 16 17 17 16 16 15 13 12 11 10 8 7
8 9 9 10 10 9 9 10 10 10 9 11 12 13 13 13 14 14 14 14 14 14 14 14 14 14 14 14 15 16 17 17 17 18 17 17 16 14 13 12 10 9 8
9 10 10 10 10 9 9 10 10 10 11 12 13 13 13 14 14 14 14 15 15 14 14 14 14 14 13 14 15 16 17 17 18 18 18 18 17 16 15 13 12 11 9
9 9 10 10 9 9 9 10 10 11 12 13 14 14 14 15 15 15 15 15 15 15 14 14 14 14 13 13 14 15 16 17 18 19 18 18 18 17 16 14 13 12 11
10 9 9 9 9 9 10 10 11 12 13 14 14 15 15 16 16 16 16 16 15 15 15 14 14 14 14 13 14 15 16 17 18 18 18 19 19 18 17 16 14 13 12
10 10 10 9 9 9 9 10 11 12 13 14 15 16 16 16 16 16 16 16 16 16 15 15 14 14 14 14 14 15 15 16 18 18 19 19 19 19 18 17 15 14 13
9 10 10 10 9 10 10 10 11 12 13 14 15 16 17 17 17 17 17 17 17 16 16 15 15 15 15 15 14 15 16 16 18 18 19 20 20 20 19 18 16 15 14
9 10 10 10 10 10 11 11 12 13 14 15 16 17 17 17 17 17 17 17 17 17 17 16 16 15 15 15 15 15 16 17 18 19 19 20 21 20 20 19 18 16 15
9 10 10 10 10 10 11 12 13 14 15 16 17 17 17 18 18 18 18 18 18 17 17 17 17 16 16 15 15 15 16 17 18 19 20 21 21 21 21 21 19 17 15
9 10 10 10 10 11 11 12 13 14 15 16 17 17 18 19 19 19 19 18 18 17 17 17 17 17 17 16 16 15 16 17 18 20 21 22 22 21 21 21 20 19 17
9 9 9 10 10 11 11 12 13 14 15 16 17 17 18 19 20 20 19 18 18 17 18 18 18 17 16 16 15 15 15 17 18 20 21 23 23 22 22 22 21 20 18
9 10 9 10 10 11 12 12 13 14 15 16 17 18 18 19 20 20 19 19 18 18 19 19 18 16 15 15 14 15 15 15 17 19 21 23 23 23 22 22 22 21 20
9 9 10 10 11 11 12 12 13 14 15 16 17 18 19 19 20 20 20 20 19 19 19 19 18 16 14 14 13 13 14 15 16 18 20 23 23 23 22 23 23 22 21
9 9 10 10 11 11 12 13 13 14 15 16 17 18 19 20 20 20 20 21 21 20 19 18 17 16 14 13 12 11 12 14 15 17 20 22 23 22 22 22 23 23 22
8 9 9 10 11 11 12 12 13 14 15 16 17 18 19 19 20 21 21 22 21 21 20 18 17 15 14 12 11 10 10 12 14 16 19 21 22 22 22 23 23 23 24
8 9 9 10 10 11 11 12 12 13 14 15 16 17 19 19 20 21 22 22 22 21 21 19 16 15 13 11 9 9 8 10 12 14 17 19 21 22 22 22 23 23 24
8 9 9 9 9 10 10 11 12 13 14 15 16 17 19 19 19 20 22 22 22 22 21 19 17 14 13 11 8 7 7 8 10 12 15 17 19 21 22 22 23 23 24
8 8 8 8 9 10 10 11 12 13 14 15 16 17 19 19 20 21 22 22 21 22 21 20 17 14 12 10 8 6 6 7 9 11 13 15 17 20 21 22 23 23 23
7 7 8 8 9 10 10 12 12 13 14 15 16 17 18 19 20 21 22 22 22 22 22 20 18 15 12 9 7 5 4 5 7 9 12 14 16 19 20 21 22 22 22
6 7 8 8 9 10 10 11 13 14 15 16 16 17 18 18 19 20 21 21 21 22 21 20 18 15 12 9 7 5 4 4 6 8 11 13 16 18 19 20 21 21 21
6 7 7 8 9 10 11 12 13 14 15 16 17 17 18 18 19 20 21 21 21 21 21 20 18 16 13 10 8 5 3 3 4 6 9 12 14 17 18 20 20 21 22

GEFSSE_500_meanwind_120.txt.gz
Wind_Speed
3 3 4 6 6 7 7 7 8 8 8 9 9 9 9 9 9 9 10 10 10 10 10 11 12 12 13 13 13 13 13 14 13 13 12 11 10 9 8 7 6 6 5
3 4 5 6 6 7 8 8 8 8 9 9 9 9 9 9 9 10 10 11 11 11 11 11 12 12 13 13 14 13 13 14 14 13 13 12 11 10 9 8 7 6 5
3 4 6 6 7 8 8 8 8 8 9 9 9 9 9 10 10 10 10 11 11 11 11 11 12 13 13 14 14 14 13 14 14 14 13 13 12 11 9 9 8 7 6
4 5 6 6 6 7 8 8 8 8 9 9 9 9 10 10 10 10 11 11 11 12 12 12 12 12 13 13 14 14 14 14 14 14 14 14 13 12 11 10 9 7 7
4 5 6 6 7 7 8 8 8 8 8 8 9 9 9 10 11 11 11 11 12 12 12 13 13 13 13 13 14 14 14 13 14 14 14 14 13 12 11 10 9 8 7
4 5 6 6 7 7 7 7 7 7 8 8 9 10 10 10 11 11 11 11 12 12 13 13 13 13 13 14 14 14 14 14 14 14 14 14 13 12 12 11 10 8 7
4 6 6 6 7 7 7 7 7 7 8 8 9 10 10 11 11 11 12 12 12 13 13 13 13 13 13 13 14 14 14 14 14 14 14 14 13 13 12 11 10 9 8
5 5 6 6 7 7 7 7 7 7 8 9 10 10 11 11 11 12 12 12 12 12 13 13 13 13 13 13 13 13 13 13 13 14 15 14 14 13 12 12 10 9 8
4 5 6 6 6 7 7 7 7 8 8 9 10 10 11 11 12 12 12 12 12 13 13 13 13 13 13 12 12 12 12 13 12 13 15 15 14 14 13 13 11 9 8
5 6 6 6 6 6 7 7 7 8 9 9 10 10 11 12 13 13 13 13 13 13 13 13 13 13 13 13 13 12 12 13 12 13 14 15 14 14 14 13 12 10 9
4 5 6 6 6 6 6 7 7 8 9 10 10 11 12 13 13 13 13 13 13 13 13 13 13 13 13 13 13 13 13 13 13 13 14 15 15 14 14 13 13 12 10
4 4 5 6 6 6 6 7 8 8 9 10 10 11 12 13 13 14 14 13 13 13 13 14 14 14 13 13 13 13 13 13 13 13 14 15 15 15 14 14 14 13 12
3 4 4 4 5 5 6 6 7 8 9 10 11 11 12 13 13 14 14 13 13 13 14 14 14 14 14 13 13 14 13 13 14 14 15 16 17 16 15 14 14 14 13
4 4 4 4 4 4 5 6 7 8 9 9 10 11 12 13 13 14 14 14 14 14 14 15 15 14 14 14 14 14 14 13 14 15 15 16 17 17 15 15 15 15 14
4 3 3 3 3 4 5 6 7 8 9 10 10 12 13 14 14 14 14 15 15 15 15 15 15 14 14 14 13 13 14 13 14 15 16 16 17 17 17 16 16 15 15
3 2 3 4 4 4 5 6 7 8 9 10 11 12 13 14 15 15 15 15 15 15 15 16 15 14 13 12 12 12 12 13 14 14 16 17 17 18 18 17 18 17 16
2 2 3 3 3 4 5 6 7 8 9 10 11 12 13 14 15 15 15 16 17 16 16 16 14 14 12 11 10 10 10 12 12 14 16 17 18 19 19 19 18 18 17
1 2 2 3 3 4 6 7 7 8 9 10 11 12 13 14 15 16 16 17 17 17 17 16 14 13 11 10 9 9 9 11 12 13 15 16 18 19 20 20 19 19 18
1 2 3 3 4 5 7 8 8 9 9 11 12 12 13 14 15 16 17 18 18 18 18 16 14 12 11 9 8 8 8 9 11 12 14 16 17 19 20 20 20 20 20
2 2 3 4 5 6 7 8 9 9 10 11 12 13 14 15 16 17 18 18 19 18 17 16 14 12 10 9 7 6 6 7 8 10 13 15 16 18 20 20 20 20 21
3 3 4 4 5 5 6 7 8 9 10 11 12 13 14 15 16 18 18 19 19 18 17 16 14 12 10 9 7 5 4 5 6 9 11 14 16 17 19 20 21 21 21
3 3 4 4 4 5 6 7 8 9 11 12 13 14 14 15 16 18 19 19 18 18 17 16 15 13 11 9 7 5 3 3 5 7 10 12 15 17 18 20 21 21 22
3 4 4 4 5 5 6 7 8 10 11 12 13 14 15 16 16 17 19 19 18 18 17 17 16 14 11 9 7 5 3 2 2 5 8 11 13 15 17 20 20 21 22
3 3 4 4 5 6 6 7 9 10 11 12 13 14 15 16 17 18 18 19 19 18 18 17 16 14 12 9 7 5 3 2 1 4 6 9 11 14 16 19 20 20 22
3 3 3 3 4 5 7 8 9 10 11 12 13 14 16 16 17 18 19 19 19 19 19 18 17 14 12 10 8 6 5 3 0 3 6 8 10 13 14 17 19 20 21
3 3 3 3 4 5 6 8 9 10 11 12 13 14 16 16 17 17 18 18 18 18 19 18 17 15 13 11 9 7 5 3 1 2 4 6 9 11 14 16 18 19 21

GEFSSE_500_meanwind_126.txt.gz
Wind_Speed
2 2 2 4 5 6 7 7 8 9 9 10 9 10 10 10 10 10 10 10 10 10 10 10 10 10 10 9 9 9 9 9 9 9 9 9 9 8 7 7 6 5 5
1 2 3 4 5 6 7 8 8 8 9 9 9 10 10 10 10 10 10 10 10 11 11 11 11 10 10 10 10 10 10 10 10 9 9 9 9 8 8 7 6 5 5
1 2 3 5 5 6 7 8 8 9 9 9 9 9 10 10 10 10 11 11 11 11 11 11 11 11 10 10 10 10 10 10 10 10 9 9 9 9 8 8 7 6 5
1 3 4 5 5 6 7 7 8 9 9 9 9 10 10 10 11 11 12 12 12 12 12 12 12 12 11 11 10 10 9 10 10 9 9 10 10 9 9 8 7 6 5
2 3 4 4 5 6 7 7 8 8 8 9 9 10 11 11 12 12 12 13 13 12 12 12 12 12 11 11 10 10 10 10 10 10 10 10 10 10 9 8 8 7 5
2 3 4 5 6 6 7 8 8 8 8 9 10 11 11 11 12 12 12 12 12 12 13 12 12 12 11 10 10 10 9 9 9 10 10 10 9 10 9 8 8 7 6
2 3 5 6 6 6 7 8 8 8 9 9 10 10 11 11 12 12 12 12 12 12 12 12 11 11 10 10 9 9 9 9 9 9 10 10 10 10 10 9 9 8 7
2 4 5 6 6 7 7 7 8 8 9 10 10 11 11 11 12 12 13 13 12 12 11 11 11 11 10 10 10 9 9 9 9 9 9 10 10 10 10 10 9 9 8
3 4 5 6 6 6 7 7 8 8 9 10 11 11 12 12 12 13 13 13 12 12 12 11 11 11 11 10 10 9 9 9 9 9 9 9 10 10 10 10 10 9 8
4 5 5 6 6 6 7 8 8 9 10 11 11 12 12 12 13 13 13 12 12 12 12 12 11 11 11 10 10 9 9 9 9 9 9 9 10 11 11 10 10 9 9
4 4 5 5 6 7 7 8 9 10 10 11 12 12 13 13 13 13 13 13 13 12 12 12 11 11 11 11 10 9 9 9 9 10 10 10 10 11 12 11 11 10 10
4 4 5 6 7 7 7 8 9 10 10 11 12 12 13 13 13 13 13 13 12 12 12 12 11 11 11 11 10 10 10 10 10 11 11 11 11 12 12 12 11 11 11
4 5 5 6 6 7 7 9 10 10 11 11 12 13 13 13 13 13 12 12 12 12 12 12 12 12 11 11 10 10 10 10 10 11 12 12 12 13 13 13 12 11 12
4 4 5 6 6 6 7 9 10 10 11 11 12 13 13 13 14 13 12 13 13 13 13 13 12 12 11 11 10 10 10 10 11 11 12 13 13 14 13 13 13 12 12
3 4 5 5 5 6 7 8 9 10 11 11 12 12 13 14 14 14 13 14 14 14 14 13 13 12 11 10 9 9 10 10 11 11 12 13 14 14 14 14 14 14 13
3 3 4 4 5 6 7 7 9 10 10 11 12 13 13 14 14 14 15 15 15 15 14 14 13 12 10 9 8 8 8 9 10 10 12 13 14 14 15 15 15 15 14
2 3 3 3 4 5 6 7 8 9 10 11 12 13 13 14 15 15 16 16 16 16 15 15 13 12 10 9 7 7 7 7 9 10 11 13 14 15 16 16 16 16 15
2 2 2 2 3 4 5 6 8 9 10 11 12 13 13 14 15 16 16 17 17 16 15 15 13 12 11 9 7 6 6 6 7 9 11 12 14 14 15 16 17 17 16
2 1 1 2 2 3 5 7 8 9 10 11 12 13 14 15 16 16 17 17 17 17 16 15 13 12 11 9 7 5 4 4 5 7 9 11 13 14 15 16 17 17 17
2 1 0 1 2 4 5 7 8 9 10 11 12 13 14 15 16 17 18 18 18 18 17 15 14 12 11 9 8 6 4 3 3 5 7 10 12 14 15 16 17 18 19
2 1 1 1 2 4 6 8 9 10 11 12 13 14 15 15 16 18 19 19 19 18 17 16 14 13 12 10 9 7 5 3 2 4 6 8 11 13 15 16 17 18 19
2 2 1 2 3 5 6 8 9 10 11 13 14 14 15 16 17 18 19 20 20 18 17 17 15 14 13 11 9 8 6 3 1 1 4 7 10 12 14 15 17 18 19
3 2 2 2 4 5 6 7 9 10 11 13 14 15 15 16 18 19 19 20 20 19 18 18 16 15 14 12 11 10 8 5 3 1 2 4 8 10 12 14 16 18 19
4 3 3 3 4 4 6 7 9 10 11 13 14 15 16 17 18 19 20 20 20 20 19 19 17 16 15 13 12 11 9 7 5 2 1 2 6 8 11 13 15 17 19
5 5 4 3 3 4 5 7 8 10 11 12 14 15 16 16 17 18 19 20 20 20 20 20 19 18 16 14 13 12 11 9 7 4 2 1 3 6 9 11 14 17 19
7 6 4 3 3 3 5 6 8 9 10 12 13 14 15 16 17 18 19 20 20 20 20 21 20 19 18 16 14 13 11 10 8 6 3 1 1 4 7 9 12 15 17

GEFSSE_500_meanwind_132.txt.gz
Wind_Speed
1 0 1 2 3 4 4 4 5 6 6 6 7 7 7 7 6 6 6 6 6 6 5 4 4 4 4 4 5 7 8 8 8 9 8 8 9 9 9 8 7 6 6
1 0 1 2 4 4 4 5 5 6 7 7 7 7 7 7 7 7 7 7 7 6 6 6 5 5 5 5 5 7 8 8 9 9 9 9 9 9 9 9 8 7 7
1 0 2 3 4 4 5 5 6 7 8 8 7 8 8 8 8 8 8 8 8 7 7 6 6 5 5 5 5 6 8 8 9 9 10 10 10 10 10 9 9 9 8
1 1 2 3 4 4 5 6 7 8 8 8 8 8 8 8 9 9 9 9 9 8 7 7 6 6 6 6 6 6 7 8 9 9 9 10 11 11 10 10 10 9 8
1 1 2 3 4 4 5 7 7 8 9 9 8 9 8 8 9 9 9 10 9 9 8 7 6 6 6 6 6 7 7 8 9 9 9 10 11 11 11 11 10 9 9
1 1 2 3 4 5 6 7 8 9 9 9 9 9 9 9 9 10 10 10 10 10 9 8 7 7 6 6 6 7 7 8 8 9 9 10 11 12 12 12 11 10 10
0 1 2 3 4 5 6 7 8 8 9 9 9 9 10 10 10 11 11 11 10 10 9 8 8 7 6 6 6 7 7 8 8 9 9 10 11 12 12 12 12 11 10
0 1 3 4 5 6 6 7 8 8 9 9 9 10 11 11 11 11 11 11 10 10 10 9 8 7 7 7 7 8 8 9 9 9 9 10 11 12 12 12 12 12 11
0 2 3 4 5 6 6 7 7 8 9 9 10 11 11 12 12 11 11 11 11 10 9 9 8 8 7 8 8 8 9 9 9 10 10 10 11 12 12 13 13 12 12
1 2 3 4 5 5 6 7 8 9 9 10 11 11 12 12 12 12 11 11 11 10 9 9 9 8 8 8 8 8 9 9 10 10 10 11 11 12 12 13 13 12 12
2 3 3 4 5 5 6 7 8 9 10 10 11 11 12 12 12 12 11 11 11 10 9 9 9 8 8 8 8 9 9 9 10 11 11 11 12 12 12 13 13 12 12
2 2 3 4 5 5 6 7 8 9 10 10 11 11 12 12 12 12 12 11 10 10 10 9 9 9 8 8 8 8 9 10 10 10 11 12 12 12 13 13 13 13 13
1 2 3 4 4 5 6 7 8 9 10 10 11 11 12 12 13 12 12 11 10 10 10 9 9 8 8 7 7 8 9 9 10 11 11 11 12 13 13 13 13 13 13
1 1 3 3 4 5 6 8 8 9 9 10 11 12 12 13 13 12 12 12 11 10 10 9 8 8 7 7 6 7 8 9 10 10 11 12 12 13 14 14 14 13 14
1 1 2 3 3 5 6 7 8 9 9 10 11 12 12 12 13 13 13 12 12 11 10 9 8 7 6 5 5 6 7 8 10 11 12 12 12 13 14 14 15 15 15
0 1 2 3 4 5 6 7 8 8 9 10 11 12 12 13 13 13 12 12 12 11 10 10 9 7 6 4 4 4 5 7 9 10 11 12 12 13 14 15 15 15 15
1 1 2 3 4 5 6 7 7 8 9 11 11 12 12 13 14 13 12 13 13 12 11 11 9 7 5 4 3 3 4 5 7 9 10 11 12 13 14 14 15 15 15
2 2 2 3 4 5 5 6 7 8 9 10 11 12 12 13 14 13 13 13 13 13 12 11 10 8 6 4 3 2 2 3 6 8 9 11 11 12 13 15 15 15 14
3 2 2 2 3 4 5 6 7 8 9 10 11 12 13 13 14 14 14 14 14 14 13 12 11 9 7 6 5 3 1 1 4 6 8 9 10 11 13 14 14 15 15
3 2 2 2 3 3 4 5 6 7 8 10 11 12 13 14 14 15 15 15 15 14 14 13 12 11 10 8 6 4 3 3 3 4 6 8 9 10 12 13 14 14 15
4 3 3 2 3 4 5 6 6 7 8 10 11 12 13 14 15 16 16 16 16 15 14 14 13 12 11 10 8 7 5 5 4 3 4 6 8 10 11 12 14 14 15
4 4 4 3 3 4 5 6 7 8 9 10 10 11 12 14 16 16 17 16 16 16 15 15 14 13 13 11 10 9 7 7 6 5 4 5 7 8 10 11 12 14 15
5 5 5 4 4 4 5 6 7 8 9 10 10 11 13 14 15 16 16 17 16 16 16 16 15 14 13 12 12 11 9 8 7 6 5 4 5 6 7 9 11 12 13
7 6 6 5 4 4 5 6 7 8 9 9 10 11 13 14 15 16 16 16 17 16 17 16 16 15 14 14 13 13 11 10 8 6 5 4 3 3 5 7 9 11 12
8 7 7 6 5 4 4 5 6 7 8 9 10 11 12 13 14 15 16 16 17 16 17 16 16 15 14 14 13 13 12 11 10 8 6 5 3 1 2 5 7 9 11
9 8 8 6 5 4 4 5 5 6 7 8 9 11 12 12 13 14 15 16 16 16 16 16 15 15 14 13 13 13 12 11 10 9 8 6 4 2 0 2 5 8 10

GEFSSE_500_meanwind_138.txt.gz
Wind_Speed
2 3 3 3 4 4 5 5 6 7 8 8 8 7 7 7 7 7 6 5 5 5 5 6 5 5 6 7 7 8 8 9 9 9 9 10 10 9 9 9 8 7 7
3 3 3 3 4 4 5 6 7 8 8 8 8 7 8 7 7 7 6 6 6 6 6 6 7 6 6 7 7 8 8 9 9 9 9 10 10 10 10 10 9 9 8
3 3 3 3 4 5 5 6 7 8 8 8 8 8 8 8 8 7 7 7 7 7 6 6 7 7 7 8 8 8 8 9 9 9 10 10 10 11 10 10 10 10 9
3 3 3 4 5 5 5 6 7 8 8 8 8 9 9 9 8 8 8 8 7 7 7 7 7 7 7 7 8 8 9 9 9 9 10 11 11 11 11 11 10 10 10
3 3 3 4 5 5 5 7 8 8 8 9 9 9 9 9 8 8 9 9 8 7 7 7 7 7 7 7 8 9 9 8 9 9 10 10 11 12 12 12 11 10 11
2 3 4 4 4 5 6 7 8 8 9 9 8 9 9 9 9 9 9 9 9 8 8 8 8 8 8 8 8 9 9 9 9 9 9 10 11 12 12 12 11 11 11
2 2 3 4 4 5 6 7 8 8 8 8 8 9 9 10 10 10 10 9 9 8 8 8 8 8 8 8 9 9 9 9 8 9 9 10 10 12 12 12 12 11 11
2 2 3 4 5 6 7 7 7 7 8 8 8 9 10 10 10 10 10 10 9 9 8 8 7 8 8 9 9 9 9 10 9 9 9 10 10 10 12 12 12 12 11
2 2 3 3 4 5 6 6 7 7 8 9 9 10 10 10 10 10 10 10 9 9 8 8 7 8 8 9 9 9 9 10 10 10 9 9 10 10 11 12 12 11 12
2 2 2 3 4 5 5 6 7 8 8 9 10 11 11 10 10 10 10 9 9 9 9 8 8 8 8 8 8 8 9 10 10 9 10 10 10 10 11 11 11 11 12
2 1 1 3 4 4 5 6 7 8 9 10 10 11 11 11 11 11 10 10 10 10 9 8 8 7 7 8 8 8 9 10 10 9 10 10 10 11 11 11 11 10 11
2 1 1 3 4 4 5 6 7 8 9 10 11 11 12 11 11 11 11 10 10 9 9 8 8 7 7 8 8 9 9 10 10 9 10 10 10 11 11 11 10 10 10
1 1 2 3 3 4 5 7 7 8 9 10 11 12 12 12 11 11 11 11 10 9 9 8 7 6 6 7 8 8 9 9 10 10 10 10 10 11 11 11 10 11 10
1 1 2 3 3 4 6 7 7 8 10 11 11 12 13 13 12 12 12 11 11 10 9 8 6 6 5 6 6 7 7 8 8 9 10 10 10 10 10 11 10 10 10
1 1 1 2 3 4 5 6 7 9 10 11 12 13 13 13 13 12 12 12 12 10 9 8 7 5 4 4 4 5 6 6 7 8 8 9 10 9 10 10 10 10 10
2 1 1 2 3 4 5 6 8 9 10 12 13 13 14 14 13 13 12 12 12 11 10 8 7 5 4 3 2 3 4 5 6 6 7 8 9 9 9 9 10 10 9
3 2 2 2 3 4 5 7 8 9 11 12 13 14 14 14 14 14 13 13 12 12 11 9 8 6 4 3 2 1 2 3 5 5 6 7 8 8 8 9 10 10 10
4 3 3 3 3 4 6 7 8 9 11 12 13 14 14 15 15 14 14 14 13 13 12 11 9 7 6 5 3 2 1 2 3 4 5 5 6 7 7 8 8 9 9
4 4 3 3 3 5 6 7 8 9 10 12 13 14 14 15 15 15 15 15 15 15 14 12 11 9 8 7 5 4 3 3 3 4 4 4 4 5 6 7 7 7 8
5 4 3 3 4 5 6 7 8 9 10 12 13 13 14 15 15 15 15 15 16 16 15 14 13 11 10 9 8 7 6 5 4 4 3 3 3 4 5 6 6 6 6
6 5 4 4 4 5 6 7 8 9 10 11 12 13 14 15 15 15 15 15 15 16 15 15 14 13 12 11 10 9 8 7 6 4 3 3 3 4 4 3 4 5 4
7 6 5 4 4 4 5 6 7 8 9 10 11 13 14 15 15 15 16 16 15 15 15 15 14 13 13 12 12 11 9 8 7 6 5 4 4 3 3 2 2 3 3
8 7 6 5 4 4 4 5 7 8 9 10 11 12 13 14 15 15 16 16 15 15 15 15 14 14 13 13 12 12 10 9 8 7 6 5 4 3 2 1 1 2 3
8 8 7 6 4 4 4 4 6 7 8 9 10 11 12 13 14 15 16 16 16 15 15 14 15 14 14 13 13 12 11 10 9 8 7 6 6 5 3 2 1 1 1
9 8 7 6 5 4 3 3 4 6 7 8 9 10 12 13 14 15 16 16 16 15 15 14 14 14 13 13 12 12 11 10 10 9 8 7 6 6 4 3 2 1 1
10 9 8 7 6 4 3 2 3 5 6 7 8 9 11 12 13 14 15 16 16 16 15 15 14 13 13 12 12 11 11 10 10 9 8 7 7 6 5 4 3 2 2

GEFSSE_500_meanwind_144.txt.gz
Wind_Speed
1 2 2 2 3 3 3 3 3 4 4 5 6 6 5 6 6 7 7 7 8 8 8 8 8 8 8 8 8 8 9 9 10 11 11 11 11 10 10 9 9 8 8
1 1 1 2 2 3 3 3 4 4 5 6 5 5 5 6 7 7 7 7 8 8 9 9 9 9 8 8 8 9 9 9 10 10 10 11 11 11 11 10 9 9 9
0 1 1 2 2 3 3 4 4 5 5 6 6 6 6 7 7 8 8 8 8 8 8 9 9 9 8 9 9 9 9 9 9 9 10 10 11 11 11 11 10 10 9
0 0 1 2 3 3 3 4 5 5 6 6 6 6 6 7 7 8 8 8 8 9 9 8 8 9 9 9 9 9 9 9 9 9 9 9 10 11 11 11 11 10 10
0 0 1 2 3 4 4 5 5 6 6 6 6 6 6 7 8 8 8 9 8 9 9 8 8 9 9 9 9 9 9 9 9 9 9 9 10 11 11 12 11 11 11
1 0 1 2 3 3 4 5 5 6 6 6 6 7 7 8 8 8 8 8 8 8 9 9 9 9 9 9 9 9 9 9 9 9 9 9 10 11 11 12 12 11 11
1 0 1 2 3 3 4 5 5 6 6 6 7 8 8 8 9 9 8 8 9 9 9 9 9 10 10 10 10 10 9 10 9 9 9 9 9 10 10 11 11 11 11
2 0 1 2 2 3 5 5 5 6 7 7 8 8 8 9 9 9 8 8 9 9 9 9 9 9 9 9 9 10 10 10 10 10 10 9 9 9 10 11 11 11 11
2 1 1 2 3 4 5 5 5 6 7 7 8 9 9 10 10 9 9 9 9 8 9 9 9 9 9 9 9 9 10 10 10 10 10 9 9 9 10 11 11 11 11
2 1 0 1 2 3 4 5 5 6 7 8 9 10 10 10 10 9 9 9 9 8 8 9 8 8 8 8 8 9 10 10 10 10 10 10 9 9 9 10 11 11 11
2 1 1 1 2 3 4 5 5 6 7 8 9 10 11 11 10 10 10 9 9 8 8 8 8 8 7 8 8 8 9 10 10 10 10 10 9 9 9 10 10 10 11
2 2 1 1 2 3 4 5 6 7 8 9 10 11 12 12 11 10 10 9 8 8 8 7 7 7 7 7 7 7 7 8 9 9 9 9 9 9 9 10 10 9 10
3 2 1 1 2 3 3 4 6 7 8 9 10 11 12 11 11 10 10 9 8 7 7 6 6 5 5 6 6 6 7 8 8 8 9 9 8 8 9 9 9 9 9
4 3 2 1 1 2 3 4 5 7 9 10 11 11 12 11 11 11 11 10 9 8 7 6 5 4 3 4 5 5 6 7 8 8 9 9 8 8 8 8 9 9 8
4 4 3 2 2 2 3 4 5 7 9 10 11 12 12 12 12 12 12 11 10 9 8 7 5 3 2 2 3 4 5 6 7 8 8 8 8 8 8 8 8 8 8
5 4 4 3 2 3 3 5 6 7 9 10 12 12 13 13 13 13 13 13 12 11 9 7 5 4 1 1 2 3 4 5 6 7 7 7 7 7 7 7 7 8 8
6 5 4 3 3 3 4 5 6 7 9 10 11 13 13 14 14 14 14 14 14 12 11 9 7 5 4 3 2 2 3 5 5 6 7 6 6 6 6 6 7 7 7
7 6 5 4 3 3 4 4 6 8 9 11 12 13 14 14 15 15 15 15 15 14 13 11 9 8 6 5 4 4 5 5 6 6 6 6 6 6 6 6 6 7 7
7 6 6 4 3 4 4 4 6 8 9 11 12 13 14 15 15 15 15 15 16 15 14 13 11 10 9 7 7 6 6 6 6 6 6 6 6 6 5 6 6 6 6
8 7 6 5 4 4 4 4 6 7 9 10 12 13 14 15 15 16 16 16 16 15 15 14 13 12 11 10 9 8 7 7 7 6 6 5 5 5 5 5 5 5 5
9 8 7 5 4 4 4 5 6 7 8 10 12 13 14 15 15 15 16 16 16 16 15 15 14 13 13 12 11 10 10 8 7 7 6 6 5 5 5 5 5 5 5
10 9 7 6 5 4 5 5 6 6 8 9 11 12 13 14 15 15 16 16 16 16 16 15 15 14 13 13 12 11 11 9 8 7 6 6 5 6 6 5 5 5 4
11 9 8 7 6 5 5 5 5 6 7 9 10 11 13 14 14 15 16 16 16 16 16 15 15 15 14 14 13 12 11 10 8 8 7 7 6 6 5 5 4 4 4
12 11 9 8 7 5 5 5 5 5 6 7 9 10 12 13 14 14 15 16 16 16 16 15 15 15 14 14 13 13 12 10 9 8 8 7 7 6 5 4 4 3 3
13 12 10 9 7 6 5 5 4 5 6 7 8 9 10 12 13 13 14 14 15 15 15 15 15 14 14 13 13 12 12 11 10 9 8 7 6 6 5 5 4 3 3
14 12 11 9 7 6 5 5 4 4 5 6 7 8 9 10 11 12 13 14 14 14 14 14 14 14 13 13 13 12 12 11 10 9 8 7 7 6 5 4 3 2 2